Wetterdaten: Montag, 16.09.2013
Datum Zeit Temp. Aussen +5cm Feuchte Auss Luftdruck Regen Sonnenschein Regendauer UV Solar Windben
16.09.2013 00:00 11,9 C 10,6 C 95 % 1004,4 hPa 0,2 l/m 0 min 2 min 0,0 UV-I 0 W/m 7,7 km/h (2 Bft)
16.09.2013 00:02 11,9 C 10,6 C 95 % 1004,3 hPa 0,0 l/m 0 min 2 min 0,0 UV-I 0 W/m 7,7 km/h (2 Bft)
16.09.2013 00:06 11,9 C 10,6 C 95 % 1004,3 hPa 0,0 l/m 0 min 2 min 0,0 UV-I 0 W/m 10,3 km/h (2 Bft)
16.09.2013 00:08 11,9 C 10,6 C 95 % 1004,2 hPa 0,0 l/m 0 min 2 min 0,0 UV-I 0 W/m 7,7 km/h (2 Bft)
16.09.2013 00:10 11,9 C 10,6 C 95 % 1004,2 hPa 0,0 l/m 0 min 2 min 0,0 UV-I 0 W/m 15,4 km/h (3 Bft)
16.09.2013 00:12 11,9 C 10,6 C 95 % 1004,2 hPa 0,0 l/m 0 min 2 min 0,0 UV-I 0 W/m 12,9 km/h (3 Bft)
16.09.2013 00:14 11,9 C 10,6 C 95 % 1004,2 hPa 0,0 l/m 0 min 2 min 0,0 UV-I 0 W/m 18,0 km/h (3 Bft)
16.09.2013 00:16 11,9 C 10,6 C 95 % 1004,1 hPa 0,0 l/m 0 min 2 min 0,0 UV-I 0 W/m 10,3 km/h (2 Bft)
16.09.2013 00:18 11,9 C 10,6 C 95 % 1004,1 hPa 0,0 l/m 0 min 2 min 0,0 UV-I 0 W/m 23,2 km/h (4 Bft)
16.09.2013 00:20 11,9 C 10,6 C 95 % 1004,0 hPa 0,0 l/m 0 min 2 min 0,0 UV-I 0 W/m 7,7 km/h (2 Bft)
16.09.2013 00:22 11,9 C 10,6 C 95 % 1004,0 hPa 0,0 l/m 0 min 2 min 0,0 UV-I 0 W/m 5,1 km/h (1 Bft)
16.09.2013 00:24 11,9 C 10,6 C 95 % 1003,9 hPa 0,2 l/m 0 min 2 min 0,0 UV-I 0 W/m 7,7 km/h (2 Bft)
16.09.2013 00:26 11,9 C 10,6 C 95 % 1003,9 hPa 0,0 l/m 0 min 2 min 0,0 UV-I 0 W/m 18,0 km/h (3 Bft)
16.09.2013 00:28 11,9 C 10,6 C 95 % 1004,0 hPa 0,0 l/m 0 min 2 min 0,0 UV-I 0 W/m 0,0 km/h (0 Bft)
16.09.2013 00:30 11,9 C 10,6 C 95 % 1004,0 hPa 0,0 l/m 0 min 2 min 0,0 UV-I 0 W/m 2,6 km/h (1 Bft)
16.09.2013 00:32 11,9 C 10,6 C 95 % 1003,9 hPa 0,0 l/m 0 min 2 min 0,0 UV-I 0 W/m 15,4 km/h (3 Bft)
16.09.2013 00:34 11,9 C 10,6 C 95 % 1003,9 hPa 0,0 l/m 0 min 2 min 0,0 UV-I 0 W/m 7,7 km/h (2 Bft)
16.09.2013 00:36 11,9 C 10,6 C 95 % 1003,8 hPa 0,2 l/m 0 min 2 min 0,0 UV-I 0 W/m 20,6 km/h (4 Bft)
16.09.2013 00:38 11,9 C 10,6 C 95 % 1003,8 hPa 0,0 l/m 0 min 2 min 0,0 UV-I 0 W/m 10,3 km/h (2 Bft)
16.09.2013 00:40 11,9 C 10,6 C 95 % 1003,8 hPa 0,0 l/m 0 min 2 min 0,0 UV-I 0 W/m 15,4 km/h (3 Bft)
16.09.2013 00:42 11,8 C 10,6 C 95 % 1003,6 hPa 0,0 l/m 0 min 2 min 0,0 UV-I 0 W/m 12,9 km/h (3 Bft)
16.09.2013 00:44 11,8 C 10,6 C 95 % 1003,6 hPa 0,2 l/m 0 min 2 min 0,0 UV-I 0 W/m 10,3 km/h (2 Bft)
16.09.2013 00:46 11,9 C 10,6 C 95 % 1003,6 hPa 0,0 l/m 0 min 2 min 0,0 UV-I 0 W/m 15,4 km/h (3 Bft)
16.09.2013 00:48 11,9 C 10,6 C 95 % 1003,6 hPa 0,2 l/m 0 min 2 min 0,0 UV-I 0 W/m 20,6 km/h (4 Bft)
16.09.2013 00:50 11,9 C 10,6 C 95 % 1003,5 hPa 0,0 l/m 0 min 2 min 0,0 UV-I 0 W/m 23,2 km/h (4 Bft)
16.09.2013 00:52 11,9 C 10,6 C 95 % 1003,5 hPa 0,0 l/m 0 min 2 min 0,0 UV-I 0 W/m 0,0 km/h (0 Bft)
16.09.2013 00:54 11,9 C 10,6 C 95 % 1003,3 hPa 0,0 l/m 0 min 2 min 0,0 UV-I 0 W/m 7,7 km/h (2 Bft)
16.09.2013 00:56 11,9 C 10,6 C 95 % 1003,3 hPa 0,2 l/m 0 min 2 min 0,0 UV-I 0 W/m 2,6 km/h (1 Bft)
16.09.2013 00:58 11,8 C 10,6 C 95 % 1003,2 hPa 0,0 l/m 0 min 2 min 0,0 UV-I 0 W/m 7,7 km/h (2 Bft)
16.09.2013 01:00 11,8 C 10,6 C 95 % 1003,1 hPa 0,0 l/m 0 min 2 min 0,0 UV-I 0 W/m 15,4 km/h (3 Bft)
16.09.2013 01:02 11,8 C 10,6 C 95 % 1003,1 hPa 0,2 l/m 0 min 2 min 0,0 UV-I 0 W/m 2,6 km/h (1 Bft)
16.09.2013 01:06 11,8 C 10,6 C 95 % 1003,0 hPa 0,0 l/m 0 min 2 min 0,0 UV-I 0 W/m 20,6 km/h (4 Bft)
16.09.2013 01:08 11,8 C 10,6 C 95 % 1003,0 hPa 0,2 l/m 0 min 2 min 0,0 UV-I 0 W/m 20,6 km/h (4 Bft)
16.09.2013 01:10 11,8 C 10,6 C 96 % 1002,9 hPa 0,0 l/m 0 min 2 min 0,0 UV-I 0 W/m 5,1 km/h (1 Bft)
16.09.2013 01:12 11,8 C 10,6 C 96 % 1002,9 hPa 0,0 l/m 0 min 2 min 0,0 UV-I 0 W/m 7,7 km/h (2 Bft)
16.09.2013 01:14 11,8 C 10,6 C 96 % 1002,9 hPa 0,0 l/m 0 min 2 min 0,0 UV-I 0 W/m 18,0 km/h (3 Bft)
16.09.2013 01:16 11,8 C 10,6 C 96 % 1002,9 hPa 0,2 l/m 0 min 2 min 0,0 UV-I 0 W/m 12,9 km/h (3 Bft)
16.09.2013 01:18 11,8 C 10,6 C 96 % 1002,9 hPa 0,0 l/m 0 min 2 min 0,0 UV-I 0 W/m 15,4 km/h (3 Bft)
16.09.2013 01:20 11,9 C 10,6 C 96 % 1002,8 hPa 0,0 l/m 0 min 2 min 0,0 UV-I 0 W/m 15,4 km/h (3 Bft)
16.09.2013 01:22 11,8 C 10,6 C 96 % 1002,9 hPa 0,0 l/m 0 min 2 min 0,0 UV-I 0 W/m 25,7 km/h (4 Bft)
16.09.2013 01:24 11,9 C 10,6 C 96 % 1002,8 hPa 0,0 l/m 0 min 2 min 0,0 UV-I 0 W/m 12,9 km/h (3 Bft)
16.09.2013 01:26 11,9 C 10,6 C 96 % 1002,7 hPa 0,0 l/m 0 min 2 min 0,0 UV-I 0 W/m 10,3 km/h (2 Bft)
16.09.2013 01:28 11,9 C 10,6 C 96 % 1002,8 hPa 0,0 l/m 0 min 2 min 0,0 UV-I 0 W/m 12,9 km/h (3 Bft)
16.09.2013 01:30 11,9 C 10,6 C 96 % 1002,8 hPa 0,0 l/m 0 min 2 min 0,0 UV-I 0 W/m 15,4 km/h (3 Bft)
16.09.2013 01:32 11,9 C 10,6 C 96 % 1002,8 hPa 0,0 l/m 0 min 2 min 0,0 UV-I 0 W/m 5,1 km/h (1 Bft)
16.09.2013 01:34 11,9 C 10,6 C 96 % 1002,7 hPa 0,2 l/m 0 min 2 min 0,0 UV-I 0 W/m 10,3 km/h (2 Bft)
16.09.2013 01:36 11,9 C 10,6 C 96 % 1002,8 hPa 0,0 l/m 0 min 2 min 0,0 UV-I 0 W/m 10,3 km/h (2 Bft)
16.09.2013 01:38 11,9 C 10,6 C 96 % 1002,6 hPa 0,2 l/m 0 min 2 min 0,0 UV-I 0 W/m 20,6 km/h (4 Bft)
16.09.2013 01:40 11,9 C 10,6 C 96 % 1002,7 hPa 0,0 l/m 0 min 2 min 0,0 UV-I 0 W/m 20,6 km/h (4 Bft)
16.09.2013 01:42 11,9 C 10,6 C 96 % 1002,7 hPa 0,2 l/m 0 min 2 min 0,0 UV-I 0 W/m 20,6 km/h (4 Bft)
16.09.2013 01:44 11,9 C 10,6 C 96 % 1002,6 hPa 0,0 l/m 0 min 2 min 0,0 UV-I 0 W/m 2,6 km/h (1 Bft)
16.09.2013 01:46 11,9 C 10,6 C 96 % 1002,6 hPa 0,2 l/m 0 min 2 min 0,0 UV-I 0 W/m 18,0 km/h (3 Bft)
16.09.2013 01:48 11,9 C 10,6 C 96 % 1002,7 hPa 0,0 l/m 0 min 2 min 0,0 UV-I 0 W/m 25,7 km/h (4 Bft)
16.09.2013 01:50 11,9 C 10,6 C 96 % 1002,6 hPa 0,0 l/m 0 min 2 min 0,0 UV-I 0 W/m 28,3 km/h (4 Bft)
16.09.2013 01:52 11,9 C 10,6 C 96 % 1002,5 hPa 0,0 l/m 0 min 0 min 0,0 UV-I 0 W/m 20,6 km/h (4 Bft)
16.09.2013 01:54 11,9 C 10,6 C 96 % 1002,6 hPa 0,0 l/m 0 min 0 min 0,0 UV-I 0 W/m 12,9 km/h (3 Bft)
16.09.2013 01:56 11,9 C 10,6 C 96 % 1002,4 hPa 0,0 l/m 0 min 0 min 0,0 UV-I 0 W/m 10,3 km/h (2 Bft)
16.09.2013 01:58 12,0 C 10,6 C 96 % 1002,4 hPa 0,0 l/m 0 min 2 min 0,0 UV-I 0 W/m 23,2 km/h (4 Bft)
16.09.2013 02:00 12,0 C 10,6 C 96 % 1002,3 hPa 0,0 l/m 0 min 2 min 0,0 UV-I 0 W/m 10,3 km/h (2 Bft)
16.09.2013 02:02 12,0 C 10,6 C 96 % 1002,4 hPa 0,0 l/m 0 min 2 min 0,0 UV-I 0 W/m 18,0 km/h (3 Bft)
16.09.2013 02:06 12,1 C 10,6 C 96 % 1002,4 hPa 0,0 l/m 0 min 2 min 0,0 UV-I 0 W/m 18,0 km/h (3 Bft)
16.09.2013 02:08 12,1 C 10,6 C 96 % 1002,3 hPa 0,0 l/m 0 min 2 min 0,0 UV-I 0 W/m 18,0 km/h (3 Bft)
16.09.2013 02:10 12,1 C 10,6 C 96 % 1002,3 hPa 0,0 l/m 0 min 2 min 0,0 UV-I 0 W/m 10,3 km/h (2 Bft)
16.09.2013 02:12 12,1 C 10,6 C 96 % 1002,2 hPa 0,0 l/m 0 min 2 min 0,0 UV-I 0 W/m 25,7 km/h (4 Bft)
16.09.2013 02:14 12,1 C 10,6 C 96 % 1002,1 hPa 0,0 l/m 0 min 2 min 0,0 UV-I 0 W/m 20,6 km/h (4 Bft)
16.09.2013 02:16 12,1 C 10,6 C 96 % 1002,1 hPa 0,0 l/m 0 min 0 min 0,0 UV-I 0 W/m 12,9 km/h (3 Bft)
16.09.2013 02:18 12,1 C 10,6 C 97 % 1002,0 hPa 0,0 l/m 0 min 0 min 0,0 UV-I 0 W/m 7,7 km/h (2 Bft)
16.09.2013 02:20 12,1 C 10,6 C 97 % 1002,0 hPa 0,0 l/m 0 min 0 min 0,0 UV-I 0 W/m 15,4 km/h (3 Bft)
16.09.2013 02:22 12,1 C 10,6 C 97 % 1001,9 hPa 0,0 l/m 0 min 0 min 0,0 UV-I 0 W/m 2,6 km/h (1 Bft)
16.09.2013 02:24 12,1 C 10,6 C 97 % 1001,7 hPa 0,0 l/m 0 min 0 min 0,0 UV-I 0 W/m 25,7 km/h (4 Bft)
16.09.2013 02:26 12,1 C 10,6 C 97 % 1001,6 hPa 0,0 l/m 0 min 0 min 0,0 UV-I 0 W/m 18,0 km/h (3 Bft)
16.09.2013 02:28 12,1 C 10,6 C 97 % 1001,7 hPa 0,0 l/m 0 min 2 min 0,0 UV-I 0 W/m 28,3 km/h (4 Bft)
16.09.2013 02:30 12,1 C 10,6 C 97 % 1001,7 hPa 0,0 l/m 0 min 0 min 0,0 UV-I 0 W/m 15,4 km/h (3 Bft)
16.09.2013 02:32 12,2 C 10,6 C 97 % 1001,6 hPa 0,0 l/m 0 min 0 min 0,0 UV-I 0 W/m 25,7 km/h (4 Bft)
16.09.2013 02:34 12,2 C 10,6 C 97 % 1001,6 hPa 0,0 l/m 0 min 0 min 0,0 UV-I 0 W/m 15,4 km/h (3 Bft)
16.09.2013 02:36 12,2 C 10,6 C 97 % 1001,6 hPa 0,0 l/m 0 min 0 min 0,0 UV-I 0 W/m 10,3 km/h (2 Bft)
16.09.2013 02:38 12,2 C 10,6 C 97 % 1001,6 hPa 0,0 l/m 0 min 0 min 0,0 UV-I 0 W/m 10,3 km/h (2 Bft)
16.09.2013 02:40 12,2 C 11,1 C 97 % 1001,7 hPa 0,0 l/m 0 min 0 min 0,0 UV-I 0 W/m 12,9 km/h (3 Bft)
16.09.2013 02:42 12,2 C 11,1 C 97 % 1001,6 hPa 0,0 l/m 0 min 2 min 0,0 UV-I 0 W/m 23,2 km/h (4 Bft)
16.09.2013 02:44 12,2 C 11,1 C 97 % 1001,6 hPa 0,0 l/m 0 min 0 min 0,0 UV-I 0 W/m 18,0 km/h (3 Bft)
16.09.2013 02:46 12,2 C 11,1 C 97 % 1001,5 hPa 0,0 l/m 0 min 0 min 0,0 UV-I 0 W/m 12,9 km/h (3 Bft)
16.09.2013 02:48 12,2 C 11,1 C 97 % 1001,4 hPa 0,0 l/m 0 min 0 min 0,0 UV-I 0 W/m 12,9 km/h (3 Bft)
16.09.2013 02:50 12,2 C 11,1 C 97 % 1001,4 hPa 0,0 l/m 0 min 2 min 0,0 UV-I 0 W/m 12,9 km/h (3 Bft)
16.09.2013 02:52 12,2 C 10,6 C 97 % 1001,3 hPa 0,0 l/m 0 min 2 min 0,0 UV-I 0 W/m 20,6 km/h (4 Bft)
16.09.2013 02:54 12,2 C 11,1 C 97 % 1001,3 hPa 0,2 l/m 0 min 2 min 0,0 UV-I 0 W/m 23,2 km/h (4 Bft)
16.09.2013 02:56 12,2 C 11,1 C 97 % 1001,4 hPa 0,0 l/m 0 min 2 min 0,0 UV-I 0 W/m 12,9 km/h (3 Bft)
16.09.2013 02:58 12,2 C 11,1 C 97 % 1001,3 hPa 0,0 l/m 0 min 2 min 0,0 UV-I 0 W/m 12,9 km/h (3 Bft)
16.09.2013 03:00 12,2 C 11,1 C 97 % 1001,3 hPa 0,0 l/m 0 min 2 min 0,0 UV-I 0 W/m 20,6 km/h (4 Bft)
16.09.2013 03:02 12,2 C 11,1 C 97 % 1001,2 hPa 0,0 l/m 0 min 2 min 0,0 UV-I 0 W/m 10,3 km/h (2 Bft)
16.09.2013 03:06 12,2 C 11,1 C 97 % 1001,1 hPa 0,0 l/m 0 min 2 min 0,0 UV-I 0 W/m 20,6 km/h (4 Bft)
16.09.2013 03:08 12,2 C 11,1 C 97 % 1001,1 hPa 0,2 l/m 0 min 2 min 0,0 UV-I 0 W/m 10,3 km/h (2 Bft)
16.09.2013 03:10 12,2 C 11,1 C 97 % 1001,2 hPa 0,0 l/m 0 min 2 min 0,0 UV-I 0 W/m 12,9 km/h (3 Bft)
16.09.2013 03:12 12,2 C 11,1 C 97 % 1001,0 hPa 0,0 l/m 0 min 2 min 0,0 UV-I 0 W/m 18,0 km/h (3 Bft)
16.09.2013 03:14 12,2 C 11,1 C 97 % 1001,0 hPa 0,0 l/m 0 min 2 min 0,0 UV-I 0 W/m 2,6 km/h (1 Bft)
16.09.2013 03:16 12,2 C 11,1 C 97 % 1001,1 hPa 0,0 l/m 0 min 2 min 0,0 UV-I 0 W/m 20,6 km/h (4 Bft)
16.09.2013 03:18 12,2 C 11,1 C 97 % 1001,0 hPa 0,0 l/m 0 min 2 min 0,0 UV-I 0 W/m 10,3 km/h (2 Bft)
16.09.2013 03:20 12,2 C 11,1 C 97 % 1001,0 hPa 0,0 l/m 0 min 2 min 0,0 UV-I 0 W/m 18,0 km/h (3 Bft)
16.09.2013 03:22 12,2 C 11,1 C 97 % 1001,1 hPa 0,0 l/m 0 min 2 min 0,0 UV-I 0 W/m 20,6 km/h (4 Bft)
16.09.2013 03:24 12,2 C 11,1 C 97 % 1001,0 hPa 0,2 l/m 0 min 2 min 0,0 UV-I 0 W/m 15,4 km/h (3 Bft)
16.09.2013 03:26 12,2 C 11,1 C 97 % 1001,0 hPa 0,0 l/m 0 min 2 min 0,0 UV-I 0 W/m 10,3 km/h (2 Bft)
16.09.2013 03:28 12,2 C 11,1 C 97 % 1001,0 hPa 0,0 l/m 0 min 2 min 0,0 UV-I 0 W/m 12,9 km/h (3 Bft)
16.09.2013 03:30 12,2 C 11,1 C 97 % 1000,9 hPa 0,0 l/m 0 min 2 min 0,0 UV-I 0 W/m 33,5 km/h (5 Bft)
16.09.2013 03:32 12,2 C 11,1 C 97 % 1000,9 hPa 0,0 l/m 0 min 2 min 0,0 UV-I 0 W/m 18,0 km/h (3 Bft)
16.09.2013 03:34 12,2 C 11,1 C 97 % 1000,9 hPa 0,0 l/m 0 min 2 min 0,0 UV-I 0 W/m 10,3 km/h (2 Bft)
16.09.2013 03:36 12,2 C 11,1 C 97 % 1000,9 hPa 0,2 l/m 0 min 2 min 0,0 UV-I 0 W/m 10,3 km/h (2 Bft)
16.09.2013 03:38 12,2 C 11,1 C 97 % 1000,8 hPa 0,0 l/m 0 min 2 min 0,0 UV-I 0 W/m 10,3 km/h (2 Bft)
16.09.2013 03:40 12,2 C 11,1 C 97 % 1000,8 hPa 0,0 l/m 0 min 2 min 0,0 UV-I 0 W/m 12,9 km/h (3 Bft)
16.09.2013 03:42 12,3 C 11,1 C 97 % 1000,9 hPa 0,0 l/m 0 min 2 min 0,0 UV-I 0 W/m 20,6 km/h (4 Bft)
16.09.2013 03:44 12,2 C 11,1 C 97 % 1000,8 hPa 0,0 l/m 0 min 2 min 0,0 UV-I 0 W/m 15,4 km/h (3 Bft)
16.09.2013 03:46 12,2 C 11,1 C 97 % 1000,7 hPa 0,2 l/m 0 min 2 min 0,0 UV-I 0 W/m 15,4 km/h (3 Bft)
16.09.2013 03:48 12,3 C 11,1 C 97 % 1000,8 hPa 0,0 l/m 0 min 2 min 0,0 UV-I 0 W/m 15,4 km/h (3 Bft)
16.09.2013 03:50 12,3 C 11,1 C 97 % 1000,8 hPa 0,0 l/m 0 min 2 min 0,0 UV-I 0 W/m 20,6 km/h (4 Bft)
16.09.2013 03:52 12,3 C 11,1 C 97 % 1000,7 hPa 0,2 l/m 0 min 2 min 0,0 UV-I 0 W/m 18,0 km/h (3 Bft)
16.09.2013 03:54 12,3 C 11,1 C 97 % 1000,8 hPa 0,0 l/m 0 min 2 min 0,0 UV-I 0 W/m 23,2 km/h (4 Bft)
16.09.2013 03:56 12,3 C 11,1 C 97 % 1000,7 hPa 0,0 l/m 0 min 2 min 0,0 UV-I 0 W/m 10,3 km/h (2 Bft)
16.09.2013 03:58 12,3 C 11,1 C 97 % 1000,7 hPa 0,0 l/m 0 min 2 min 0,0 UV-I 0 W/m 23,2 km/h (4 Bft)
16.09.2013 04:00 12,3 C 11,1 C 97 % 1000,7 hPa 0,0 l/m 0 min 2 min 0,0 UV-I 0 W/m 12,9 km/h (3 Bft)
16.09.2013 04:02 12,3 C 11,1 C 97 % 1000,8 hPa 0,0 l/m 0 min 2 min 0,0 UV-I 0 W/m 12,9 km/h (3 Bft)
16.09.2013 04:06 12,3 C 11,1 C 97 % 1000,6 hPa 0,0 l/m 0 min 2 min 0,0 UV-I 0 W/m 25,7 km/h (4 Bft)
16.09.2013 04:08 12,3 C 11,1 C 97 % 1000,6 hPa 0,0 l/m 0 min 2 min 0,0 UV-I 0 W/m 12,9 km/h (3 Bft)
16.09.2013 04:10 12,3 C 11,1 C 97 % 1000,7 hPa 0,2 l/m 0 min 0 min 0,0 UV-I 0 W/m 5,1 km/h (1 Bft)
16.09.2013 04:12 12,3 C 11,1 C 97 % 1000,7 hPa 0,0 l/m 0 min 2 min 0,0 UV-I 0 W/m 15,4 km/h (3 Bft)
16.09.2013 04:14 12,4 C 11,1 C 98 % 1000,7 hPa 0,0 l/m 0 min 2 min 0,0 UV-I 0 W/m 20,6 km/h (4 Bft)
16.09.2013 04:16 12,4 C 11,1 C 98 % 1000,7 hPa 0,0 l/m 0 min 2 min 0,0 UV-I 0 W/m 23,2 km/h (4 Bft)
16.09.2013 04:18 12,4 C 11,1 C 98 % 1000,7 hPa 0,0 l/m 0 min 2 min 0,0 UV-I 0 W/m 18,0 km/h (3 Bft)
16.09.2013 04:20 12,4 C 11,1 C 98 % 1000,6 hPa 0,0 l/m 0 min 2 min 0,0 UV-I 0 W/m 12,9 km/h (3 Bft)
16.09.2013 04:22 12,4 C 11,1 C 98 % 1000,6 hPa 0,0 l/m 0 min 2 min 0,0 UV-I 0 W/m 12,9 km/h (3 Bft)
16.09.2013 04:24 12,4 C 11,1 C 98 % 1000,6 hPa 0,0 l/m 0 min 2 min 0,0 UV-I 0 W/m 12,9 km/h (3 Bft)
16.09.2013 04:26 12,4 C 11,1 C 98 % 1000,6 hPa 0,0 l/m 0 min 2 min 0,0 UV-I 0 W/m 7,7 km/h (2 Bft)
16.09.2013 04:28 12,4 C 11,1 C 98 % 1000,6 hPa 0,0 l/m 0 min 2 min 0,0 UV-I 0 W/m 10,3 km/h (2 Bft)
16.09.2013 04:30 12,4 C 11,1 C 98 % 1000,7 hPa 0,0 l/m 0 min 0 min 0,0 UV-I 0 W/m 15,4 km/h (3 Bft)
16.09.2013 04:32 12,4 C 11,1 C 98 % 1000,7 hPa 0,0 l/m 0 min 0 min 0,0 UV-I 0 W/m 18,0 km/h (3 Bft)
16.09.2013 04:34 12,4 C 11,1 C 97 % 1000,7 hPa 0,0 l/m 0 min 0 min 0,0 UV-I 0 W/m 20,6 km/h (4 Bft)
16.09.2013 04:36 12,4 C 11,1 C 97 % 1000,6 hPa 0,0 l/m 0 min 2 min 0,0 UV-I 0 W/m 7,7 km/h (2 Bft)
16.09.2013 04:38 12,4 C 11,1 C 97 % 1000,5 hPa 0,0 l/m 0 min 2 min 0,0 UV-I 0 W/m 15,4 km/h (3 Bft)
16.09.2013 04:40 12,5 C 11,1 C 97 % 1000,5 hPa 0,0 l/m 0 min 2 min 0,0 UV-I 0 W/m 15,4 km/h (3 Bft)
16.09.2013 04:42 12,5 C 11,1 C 97 % 1000,6 hPa 0,2 l/m 0 min 2 min 0,0 UV-I 0 W/m 25,7 km/h (4 Bft)
16.09.2013 04:44 12,5 C 11,1 C 97 % 1000,5 hPa 0,0 l/m 0 min 2 min 0,0 UV-I 0 W/m 10,3 km/h (2 Bft)
16.09.2013 04:46 12,5 C 11,1 C 97 % 1000,6 hPa 0,0 l/m 0 min 0 min 0,0 UV-I 0 W/m 20,6 km/h (4 Bft)
16.09.2013 04:48 12,6 C 11,1 C 97 % 1000,6 hPa 0,0 l/m 0 min 2 min 0,0 UV-I 0 W/m 15,4 km/h (3 Bft)
16.09.2013 04:50 12,6 C 11,1 C 97 % 1000,5 hPa 0,0 l/m 0 min 2 min 0,0 UV-I 0 W/m 7,7 km/h (2 Bft)
16.09.2013 04:52 12,6 C 11,1 C 97 % 1000,5 hPa 0,0 l/m 0 min 0 min 0,0 UV-I 0 W/m 25,7 km/h (4 Bft)
16.09.2013 04:54 12,6 C 11,1 C 97 % 1000,6 hPa 0,0 l/m 0 min 0 min 0,0 UV-I 0 W/m 15,4 km/h (3 Bft)
16.09.2013 04:56 12,6 C 11,1 C 97 % 1000,4 hPa 0,0 l/m 0 min 0 min 0,0 UV-I 0 W/m 10,3 km/h (2 Bft)
16.09.2013 04:58 12,6 C 11,1 C 97 % 1000,5 hPa 0,0 l/m 0 min 0 min 0,0 UV-I 0 W/m 12,9 km/h (3 Bft)
16.09.2013 05:00 12,6 C 11,1 C 97 % 1000,5 hPa 0,0 l/m 0 min 0 min 0,0 UV-I 0 W/m 15,4 km/h (3 Bft)
16.09.2013 05:02 12,6 C 11,1 C 97 % 1000,4 hPa 0,0 l/m 0 min 0 min 0,0 UV-I 0 W/m 18,0 km/h (3 Bft)
16.09.2013 05:06 12,6 C 11,1 C 97 % 1000,5 hPa 0,0 l/m 0 min 0 min 0,0 UV-I 0 W/m 20,6 km/h (4 Bft)
16.09.2013 05:08 12,6 C 11,1 C 97 % 1000,5 hPa 0,0 l/m 0 min 2 min 0,0 UV-I 0 W/m 15,4 km/h (3 Bft)
16.09.2013 05:10 12,6 C 11,1 C 98 % 1000,5 hPa 0,0 l/m 0 min 2 min 0,0 UV-I 0 W/m 18,0 km/h (3 Bft)
16.09.2013 05:12 12,6 C 11,1 C 97 % 1000,5 hPa 0,0 l/m 0 min 0 min 0,0 UV-I 0 W/m 7,7 km/h (2 Bft)
16.09.2013 05:14 12,6 C 11,1 C 97 % 1000,5 hPa 0,0 l/m 0 min 0 min 0,0 UV-I 0 W/m 12,9 km/h (3 Bft)
16.09.2013 05:16 12,6 C 11,1 C 97 % 1000,6 hPa 0,0 l/m 0 min 2 min 0,0 UV-I 0 W/m 18,0 km/h (3 Bft)
16.09.2013 05:18 12,6 C 11,1 C 97 % 1000,5 hPa 0,0 l/m 0 min 2 min 0,0 UV-I 0 W/m 18,0 km/h (3 Bft)
16.09.2013 05:20 12,6 C 11,1 C 97 % 1000,5 hPa 0,0 l/m 0 min 2 min 0,0 UV-I 0 W/m 25,7 km/h (4 Bft)
16.09.2013 05:22 12,6 C 11,1 C 98 % 1000,4 hPa 0,0 l/m 0 min 2 min 0,0 UV-I 0 W/m 12,9 km/h (3 Bft)
16.09.2013 05:24 12,6 C 11,1 C 98 % 1000,4 hPa 0,0 l/m 0 min 2 min 0,0 UV-I 0 W/m 12,9 km/h (3 Bft)
16.09.2013 05:26 12,7 C 11,1 C 98 % 1000,4 hPa 0,0 l/m 0 min 2 min 0,0 UV-I 0 W/m 20,6 km/h (4 Bft)
16.09.2013 05:28 12,7 C 11,1 C 98 % 1000,3 hPa 0,0 l/m 0 min 2 min 0,0 UV-I 0 W/m 12,9 km/h (3 Bft)
16.09.2013 05:30 12,7 C 11,1 C 98 % 1000,3 hPa 0,0 l/m 0 min 2 min 0,0 UV-I 0 W/m 10,3 km/h (2 Bft)
16.09.2013 05:32 12,7 C 11,1 C 98 % 1000,3 hPa 0,0 l/m 0 min 2 min 0,0 UV-I 0 W/m 15,4 km/h (3 Bft)
16.09.2013 05:34 12,7 C 11,1 C 98 % 1000,4 hPa 0,0 l/m 0 min 2 min 0,0 UV-I 0 W/m 5,1 km/h (1 Bft)
16.09.2013 05:36 12,7 C 11,1 C 98 % 1000,4 hPa 0,0 l/m 0 min 2 min 0,0 UV-I 0 W/m 10,3 km/h (2 Bft)
16.09.2013 05:38 12,7 C 11,1 C 98 % 1000,4 hPa 0,0 l/m 0 min 2 min 0,0 UV-I 0 W/m 12,9 km/h (3 Bft)
16.09.2013 05:40 12,7 C 11,1 C 98 % 1000,4 hPa 0,0 l/m 0 min 2 min 0,0 UV-I 0 W/m 12,9 km/h (3 Bft)
16.09.2013 05:42 12,7 C 11,1 C 98 % 1000,3 hPa 0,2 l/m 0 min 2 min 0,0 UV-I 0 W/m 10,3 km/h (2 Bft)
16.09.2013 05:44 12,7 C 11,1 C 98 % 1000,4 hPa 0,0 l/m 0 min 2 min 0,0 UV-I 0 W/m 18,0 km/h (3 Bft)
16.09.2013 05:46 12,7 C 11,1 C 98 % 1000,3 hPa 0,0 l/m 0 min 0 min 0,0 UV-I 0 W/m 10,3 km/h (2 Bft)
16.09.2013 05:48 12,7 C 11,1 C 98 % 1000,3 hPa 0,0 l/m 0 min 0 min 0,0 UV-I 0 W/m 2,6 km/h (1 Bft)
16.09.2013 05:50 12,7 C 11,7 C 98 % 1000,3 hPa 0,0 l/m 0 min 0 min 0,0 UV-I 0 W/m 10,3 km/h (2 Bft)
16.09.2013 05:52 12,7 C 11,7 C 98 % 1000,4 hPa 0,0 l/m 0 min 0 min 0,0 UV-I 0 W/m 18,0 km/h (3 Bft)
16.09.2013 05:54 12,7 C 11,7 C 98 % 1000,3 hPa 0,0 l/m 0 min 0 min 0,0 UV-I 0 W/m 18,0 km/h (3 Bft)
16.09.2013 05:56 12,7 C 11,7 C 98 % 1000,2 hPa 0,0 l/m 0 min 2 min 0,0 UV-I 0 W/m 7,7 km/h (2 Bft)
16.09.2013 05:58 12,7 C 11,7 C 98 % 1000,2 hPa 0,0 l/m 0 min 0 min 0,0 UV-I 0 W/m 10,3 km/h (2 Bft)
16.09.2013 06:00 12,7 C 11,7 C 98 % 1000,1 hPa 0,0 l/m 0 min 0 min 0,0 UV-I 0 W/m 7,7 km/h (2 Bft)
16.09.2013 06:02 12,7 C 11,7 C 98 % 1000,1 hPa 0,0 l/m 0 min 2 min 0,0 UV-I 0 W/m 15,4 km/h (3 Bft)
16.09.2013 06:06 12,7 C 11,7 C 98 % 1000,1 hPa 0,0 l/m 0 min 0 min 0,0 UV-I 0 W/m 12,9 km/h (3 Bft)
16.09.2013 06:08 12,7 C 11,7 C 98 % 1000,1 hPa 0,0 l/m 0 min 0 min 0,0 UV-I 0 W/m 15,4 km/h (3 Bft)
16.09.2013 06:10 12,7 C 11,7 C 98 % 1000,1 hPa 0,0 l/m 0 min 0 min 0,0 UV-I 0 W/m 15,4 km/h (3 Bft)
16.09.2013 06:12 12,7 C 11,7 C 98 % 1000,1 hPa 0,0 l/m 0 min 0 min 0,0 UV-I 0 W/m 10,3 km/h (2 Bft)
16.09.2013 06:14 12,7 C 11,7 C 98 % 1000,2 hPa 0,0 l/m 0 min 0 min 0,0 UV-I 0 W/m 10,3 km/h (2 Bft)
16.09.2013 06:16 12,7 C 11,7 C 98 % 1000,2 hPa 0,0 l/m 0 min 2 min 0,0 UV-I 0 W/m 7,7 km/h (2 Bft)
16.09.2013 06:18 12,8 C 11,7 C 98 % 1000,5 hPa 0,0 l/m 0 min 2 min 0,0 UV-I 0 W/m 0,0 km/h (0 Bft)
16.09.2013 06:20 12,8 C 11,7 C 97 % 1000,6 hPa 0,2 l/m 0 min 2 min 0,0 UV-I 0 W/m 5,1 km/h (1 Bft)
16.09.2013 06:22 12,7 C 11,1 C 97 % 1000,6 hPa 0,2 l/m 0 min 2 min 0,0 UV-I 0 W/m 2,6 km/h (1 Bft)
16.09.2013 06:24 12,5 C 11,1 C 97 % 1000,6 hPa 0,0 l/m 0 min 2 min 0,0 UV-I 0 W/m 10,3 km/h (2 Bft)
16.09.2013 06:26 12,3 C 10,6 C 97 % 1000,6 hPa 0,0 l/m 0 min 2 min 0,0 UV-I 0 W/m 5,1 km/h (1 Bft)
16.09.2013 06:28 12,2 C 10,6 C 97 % 1000,6 hPa 0,0 l/m 0 min 2 min 0,0 UV-I 0 W/m 0,0 km/h (0 Bft)
16.09.2013 06:30 12,1 C 10,6 C 97 % 1000,5 hPa 0,0 l/m 0 min 2 min 0,0 UV-I 0 W/m 0,0 km/h (0 Bft)
16.09.2013 06:32 12,0 C 10,6 C 97 % 1000,4 hPa 0,0 l/m 0 min 2 min 0,0 UV-I 0 W/m 5,1 km/h (1 Bft)
16.09.2013 06:34 11,9 C 10,6 C 97 % 1000,4 hPa 0,0 l/m 0 min 2 min 0,0 UV-I 0 W/m 0,0 km/h (0 Bft)
16.09.2013 06:36 11,9 C 10,6 C 97 % 1000,3 hPa 0,0 l/m 0 min 0 min 0,0 UV-I 0 W/m 0,0 km/h (0 Bft)
16.09.2013 06:38 11,8 C 10,6 C 97 % 1000,4 hPa 0,0 l/m 0 min 0 min 0,0 UV-I 0 W/m 2,6 km/h (1 Bft)
16.09.2013 06:40 11,8 C 10,6 C 97 % 1000,4 hPa 0,0 l/m 0 min 0 min 0,0 UV-I 0 W/m 0,0 km/h (0 Bft)
16.09.2013 06:42 11,7 C 10,6 C 97 % 1000,4 hPa 0,0 l/m 0 min 0 min 0,0 UV-I 0 W/m 0,0 km/h (0 Bft)
16.09.2013 06:44 11,7 C 10,6 C 97 % 1000,4 hPa 0,0 l/m 0 min 0 min 0,0 UV-I 0 W/m 0,0 km/h (0 Bft)
16.09.2013 06:46 11,7 C 10,6 C 97 % 1000,4 hPa 0,0 l/m 0 min 0 min 0,0 UV-I 0 W/m 0,0 km/h (0 Bft)
16.09.2013 06:48 11,7 C 10,6 C 97 % 1000,4 hPa 0,0 l/m 0 min 2 min 0,0 UV-I 0 W/m 5,1 km/h (1 Bft)
16.09.2013 06:50 11,7 C 10,6 C 96 % 1000,5 hPa 0,0 l/m 0 min 2 min 0,0 UV-I 0 W/m 2,6 km/h (1 Bft)
16.09.2013 06:52 11,7 C 10,6 C 96 % 1000,6 hPa 0,0 l/m 0 min 2 min 0,0 UV-I 0 W/m 0,0 km/h (0 Bft)
16.09.2013 06:54 11,6 C 10,0 C 96 % 1000,6 hPa 0,0 l/m 0 min 2 min 0,0 UV-I 0 W/m 0,0 km/h (0 Bft)
16.09.2013 06:56 11,6 C 10,0 C 96 % 1000,6 hPa 0,0 l/m 0 min 2 min 0,0 UV-I 0 W/m 0,0 km/h (0 Bft)
16.09.2013 06:58 11,6 C 10,0 C 96 % 1000,6 hPa 0,0 l/m 0 min 2 min 0,0 UV-I 0 W/m 2,6 km/h (1 Bft)
16.09.2013 07:00 11,5 C 10,0 C 96 % 1000,6 hPa 0,0 l/m 0 min 2 min 0,0 UV-I 0 W/m 2,6 km/h (1 Bft)
16.09.2013 07:02 11,4 C 10,0 C 96 % 1000,6 hPa 0,0 l/m 0 min 2 min 0,0 UV-I 0 W/m 5,1 km/h (1 Bft)
16.09.2013 07:06 11,4 C 10,0 C 96 % 1000,6 hPa 0,0 l/m 0 min 0 min 0,0 UV-I 0 W/m 0,0 km/h (0 Bft)
16.09.2013 07:08 11,3 C 10,0 C 96 % 1000,7 hPa 0,0 l/m 0 min 2 min 0,0 UV-I 0 W/m 0,0 km/h (0 Bft)
16.09.2013 07:10 11,3 C 10,0 C 96 % 1000,7 hPa 0,0 l/m 0 min 2 min 0,0 UV-I 0 W/m 0,0 km/h (0 Bft)
16.09.2013 07:12 11,3 C 10,0 C 96 % 1000,7 hPa 0,0 l/m 0 min 2 min 0,0 UV-I 0 W/m 0,0 km/h (0 Bft)
16.09.2013 07:14 11,3 C 10,0 C 96 % 1000,6 hPa 0,0 l/m 0 min 0 min 0,0 UV-I 0 W/m 0,0 km/h (0 Bft)
16.09.2013 07:16 11,3 C 10,0 C 96 % 1000,6 hPa 0,0 l/m 0 min 0 min 0,0 UV-I 0 W/m 2,6 km/h (1 Bft)
16.09.2013 07:18 11,3 C 10,0 C 96 % 1000,6 hPa 0,0 l/m 0 min 0 min 0,0 UV-I 0 W/m 0,0 km/h (0 Bft)
16.09.2013 07:20 11,2 C 10,0 C 96 % 1000,6 hPa 0,0 l/m 0 min 0 min 0,0 UV-I 0 W/m 0,0 km/h (0 Bft)
16.09.2013 07:22 11,2 C 10,0 C 96 % 1000,7 hPa 0,0 l/m 0 min 0 min 0,0 UV-I 0 W/m 0,0 km/h (0 Bft)
16.09.2013 07:24 11,2 C 10,0 C 96 % 1000,7 hPa 0,0 l/m 0 min 0 min 0,0 UV-I 0 W/m 5,1 km/h (1 Bft)
16.09.2013 07:26 11,2 C 10,0 C 96 % 1000,7 hPa 0,0 l/m 0 min 0 min 0,0 UV-I 5 W/m 0,0 km/h (0 Bft)
16.09.2013 07:28 11,2 C 10,0 C 96 % 1000,7 hPa 0,0 l/m 0 min 0 min 0,0 UV-I 5 W/m 0,0 km/h (0 Bft)
16.09.2013 07:30 11,2 C 10,0 C 96 % 1000,7 hPa 0,0 l/m 0 min 0 min 0,0 UV-I 7 W/m 0,0 km/h (0 Bft)
16.09.2013 07:32 11,2 C 10,0 C 96 % 1000,7 hPa 0,0 l/m 0 min 0 min 0,0 UV-I 9 W/m 0,0 km/h (0 Bft)
16.09.2013 07:34 11,2 C 10,0 C 96 % 1000,7 hPa 0,0 l/m 0 min 0 min 0,0 UV-I 11 W/m 0,0 km/h (0 Bft)
16.09.2013 07:36 11,2 C 10,0 C 96 % 1000,7 hPa 0,0 l/m 0 min 0 min 0,0 UV-I 11 W/m 0,0 km/h (0 Bft)
16.09.2013 07:38 11,2 C 10,0 C 96 % 1000,8 hPa 0,0 l/m 0 min 0 min 0,0 UV-I 11 W/m 0,0 km/h (0 Bft)
16.09.2013 07:40 11,2 C 10,0 C 96 % 1000,7 hPa 0,0 l/m 0 min 0 min 0,0 UV-I 11 W/m 0,0 km/h (0 Bft)
16.09.2013 07:42 11,2 C 10,0 C 96 % 1000,7 hPa 0,0 l/m 0 min 0 min 0,0 UV-I 12 W/m 0,0 km/h (0 Bft)
16.09.2013 07:44 11,2 C 10,0 C 96 % 1000,7 hPa 0,0 l/m 0 min 0 min 0,0 UV-I 14 W/m 0,0 km/h (0 Bft)
16.09.2013 07:46 11,2 C 10,0 C 96 % 1000,7 hPa 0,0 l/m 0 min 0 min 0,0 UV-I 12 W/m 0,0 km/h (0 Bft)
16.09.2013 07:48 11,2 C 10,0 C 96 % 1000,7 hPa 0,0 l/m 0 min 0 min 0,0 UV-I 16 W/m 0,0 km/h (0 Bft)
16.09.2013 07:50 11,2 C 10,0 C 96 % 1000,7 hPa 0,0 l/m 0 min 0 min 0,0 UV-I 21 W/m 0,0 km/h (0 Bft)
16.09.2013 07:52 11,2 C 10,0 C 96 % 1000,8 hPa 0,0 l/m 0 min 0 min 0,0 UV-I 25 W/m 0,0 km/h (0 Bft)
16.09.2013 07:54 11,2 C 10,0 C 96 % 1000,8 hPa 0,0 l/m 0 min 0 min 0,0 UV-I 26 W/m 0,0 km/h (0 Bft)
16.09.2013 07:56 11,3 C 10,0 C 96 % 1000,8 hPa 0,0 l/m 0 min 0 min 0,0 UV-I 26 W/m 0,0 km/h (0 Bft)
16.09.2013 07:58 11,3 C 10,0 C 96 % 1000,8 hPa 0,0 l/m 0 min 0 min 0,0 UV-I 28 W/m 0,0 km/h (0 Bft)
16.09.2013 08:00 11,2 C 10,0 C 96 % 1000,8 hPa 0,0 l/m 0 min 0 min 0,0 UV-I 26 W/m 0,0 km/h (0 Bft)
16.09.2013 08:02 11,2 C 10,0 C 96 % 1000,9 hPa 0,0 l/m 0 min 0 min 0,0 UV-I 21 W/m 0,0 km/h (0 Bft)
16.09.2013 08:06 11,2 C 10,0 C 96 % 1000,9 hPa 0,0 l/m 0 min 0 min 0,0 UV-I 40 W/m 0,0 km/h (0 Bft)
16.09.2013 08:08 11,2 C 10,0 C 96 % 1001,0 hPa 0,0 l/m 0 min 0 min 0,0 UV-I 46 W/m 0,0 km/h (0 Bft)
16.09.2013 08:10 11,3 C 10,0 C 96 % 1000,9 hPa 0,0 l/m 0 min 0 min 0,0 UV-I 32 W/m 0,0 km/h (0 Bft)
16.09.2013 08:12 11,3 C 10,6 C 97 % 1000,9 hPa 0,0 l/m 0 min 0 min 0,0 UV-I 30 W/m 0,0 km/h (0 Bft)
16.09.2013 08:14 11,3 C 10,6 C 97 % 1001,0 hPa 0,0 l/m 0 min 0 min 0,0 UV-I 35 W/m 0,0 km/h (0 Bft)
16.09.2013 08:16 11,4 C 10,6 C 97 % 1001,0 hPa 0,0 l/m 0 min 0 min 0,0 UV-I 35 W/m 0,0 km/h (0 Bft)
16.09.2013 08:18 11,4 C 10,6 C 97 % 1000,9 hPa 0,0 l/m 0 min 0 min 0,0 UV-I 39 W/m 0,0 km/h (0 Bft)
16.09.2013 08:20 11,5 C 10,6 C 97 % 1001,0 hPa 0,0 l/m 0 min 0 min 0,0 UV-I 39 W/m 0,0 km/h (0 Bft)
16.09.2013 08:22 11,6 C 10,6 C 97 % 1000,9 hPa 0,0 l/m 0 min 0 min 0,0 UV-I 47 W/m 0,0 km/h (0 Bft)
16.09.2013 08:24 11,6 C 10,6 C 97 % 1000,8 hPa 0,0 l/m 0 min 0 min 0,0 UV-I 67 W/m 0,0 km/h (0 Bft)
16.09.2013 08:26 11,6 C 10,6 C 97 % 1000,8 hPa 0,0 l/m 0 min 0 min 0,0 UV-I 76 W/m 2,6 km/h (1 Bft)
16.09.2013 08:28 11,7 C 10,6 C 97 % 1000,9 hPa 0,0 l/m 0 min 0 min 0,0 UV-I 104 W/m 0,0 km/h (0 Bft)
16.09.2013 08:30 11,7 C 10,6 C 97 % 1000,9 hPa 0,0 l/m 2 min 0 min 0,0 UV-I 132 W/m 0,0 km/h (0 Bft)
16.09.2013 08:32 11,8 C 11,1 C 97 % 1001,0 hPa 0,0 l/m 2 min 0 min 0,0 UV-I 211 W/m 0,0 km/h (0 Bft)
16.09.2013 08:34 11,9 C 11,1 C 97 % 1000,9 hPa 0,0 l/m 2 min 0 min 0,0 UV-I 202 W/m 0,0 km/h (0 Bft)
16.09.2013 08:36 12,1 C 11,1 C 97 % 1000,9 hPa 0,0 l/m 0 min 0 min 0,0 UV-I 100 W/m 0,0 km/h (0 Bft)
16.09.2013 08:38 12,1 C 11,1 C 97 % 1000,8 hPa 0,0 l/m 0 min 0 min 0,0 UV-I 79 W/m 2,6 km/h (1 Bft)
16.09.2013 08:40 12,2 C 11,1 C 97 % 1000,8 hPa 0,0 l/m 0 min 0 min 0,0 UV-I 70 W/m 0,0 km/h (0 Bft)
16.09.2013 08:42 12,2 C 11,1 C 97 % 1000,9 hPa 0,0 l/m 0 min 0 min 0,0 UV-I 62 W/m 2,6 km/h (1 Bft)
16.09.2013 08:44 12,3 C 11,1 C 97 % 1000,9 hPa 0,0 l/m 0 min 0 min 0,0 UV-I 56 W/m 0,0 km/h (0 Bft)
16.09.2013 08:46 12,3 C 11,7 C 97 % 1000,9 hPa 0,0 l/m 0 min 0 min 0,0 UV-I 56 W/m 0,0 km/h (0 Bft)
16.09.2013 08:48 12,4 C 11,7 C 97 % 1000,9 hPa 0,0 l/m 0 min 0 min 0,0 UV-I 56 W/m 0,0 km/h (0 Bft)
16.09.2013 08:50 12,4 C 11,7 C 97 % 1001,0 hPa 0,0 l/m 0 min 0 min 0,0 UV-I 47 W/m 5,1 km/h (1 Bft)
16.09.2013 08:52 12,3 C 11,1 C 97 % 1001,0 hPa 0,0 l/m 0 min 2 min 0,0 UV-I 44 W/m 5,1 km/h (1 Bft)
16.09.2013 08:54 12,3 C 11,1 C 97 % 1001,0 hPa 0,0 l/m 0 min 0 min 0,0 UV-I 42 W/m 0,0 km/h (0 Bft)
16.09.2013 08:56 12,3 C 11,1 C 97 % 1001,1 hPa 0,0 l/m 0 min 2 min 0,0 UV-I 49 W/m 0,0 km/h (0 Bft)
16.09.2013 08:58 12,3 C 11,1 C 97 % 1001,1 hPa 0,0 l/m 0 min 2 min 0,0 UV-I 56 W/m 0,0 km/h (0 Bft)
16.09.2013 09:00 12,4 C 11,7 C 97 % 1001,2 hPa 0,0 l/m 0 min 2 min 0,0 UV-I 58 W/m 2,6 km/h (1 Bft)
16.09.2013 09:02 12,4 C 11,7 C 97 % 1001,2 hPa 0,2 l/m 0 min 2 min 0,0 UV-I 53 W/m 5,1 km/h (1 Bft)
16.09.2013 09:06 12,3 C 11,1 C 97 % 1001,1 hPa 0,0 l/m 0 min 2 min 0,0 UV-I 56 W/m 10,3 km/h (2 Bft)
16.09.2013 09:08 12,2 C 11,1 C 97 % 1001,1 hPa 0,0 l/m 0 min 2 min 0,0 UV-I 47 W/m 5,1 km/h (1 Bft)
16.09.2013 09:10 12,2 C 11,1 C 97 % 1001,2 hPa 0,0 l/m 0 min 2 min 0,0 UV-I 37 W/m 12,9 km/h (3 Bft)
16.09.2013 09:12 12,1 C 10,6 C 97 % 1001,2 hPa 0,0 l/m 0 min 2 min 0,0 UV-I 32 W/m 7,7 km/h (2 Bft)
16.09.2013 09:14 12,1 C 10,6 C 97 % 1001,2 hPa 0,0 l/m 0 min 2 min 0,0 UV-I 32 W/m 2,6 km/h (1 Bft)
16.09.2013 09:16 12,0 C 10,6 C 97 % 1001,3 hPa 0,0 l/m 0 min 2 min 0,0 UV-I 39 W/m 0,0 km/h (0 Bft)
16.09.2013 09:18 11,9 C 10,6 C 97 % 1001,3 hPa 0,0 l/m 0 min 2 min 0,0 UV-I 39 W/m 0,0 km/h (0 Bft)
16.09.2013 09:20 11,8 C 10,6 C 96 % 1001,3 hPa 0,0 l/m 0 min 2 min 0,0 UV-I 33 W/m 7,7 km/h (2 Bft)
16.09.2013 09:22 11,8 C 10,6 C 96 % 1001,2 hPa 0,0 l/m 0 min 2 min 0,0 UV-I 35 W/m 0,0 km/h (0 Bft)
16.09.2013 09:24 11,7 C 10,6 C 96 % 1001,2 hPa 0,0 l/m 0 min 2 min 0,0 UV-I 39 W/m 0,0 km/h (0 Bft)
16.09.2013 09:26 11,7 C 10,6 C 96 % 1001,2 hPa 0,0 l/m 0 min 2 min 0,0 UV-I 39 W/m 7,7 km/h (2 Bft)
16.09.2013 09:28 11,6 C 10,6 C 96 % 1001,2 hPa 0,0 l/m 0 min 2 min 0,0 UV-I 49 W/m 12,9 km/h (3 Bft)
16.09.2013 09:30 11,6 C 10,6 C 96 % 1001,2 hPa 0,0 l/m 0 min 2 min 0,0 UV-I 60 W/m 12,9 km/h (3 Bft)
16.09.2013 09:32 11,5 C 10,6 C 96 % 1001,2 hPa 0,0 l/m 0 min 2 min 0,0 UV-I 70 W/m 0,0 km/h (0 Bft)
16.09.2013 09:34 11,5 C 10,6 C 96 % 1001,3 hPa 0,0 l/m 0 min 2 min 0,0 UV-I 74 W/m 0,0 km/h (0 Bft)
16.09.2013 09:36 11,5 C 10,6 C 96 % 1001,3 hPa 0,0 l/m 0 min 2 min 0,0 UV-I 70 W/m 7,7 km/h (2 Bft)
16.09.2013 09:38 11,4 C 10,6 C 95 % 1001,2 hPa 0,2 l/m 0 min 2 min 0,0 UV-I 81 W/m 5,1 km/h (1 Bft)
16.09.2013 09:40 11,4 C 10,6 C 95 % 1001,1 hPa 0,0 l/m 0 min 2 min 0,0 UV-I 104 W/m 0,0 km/h (0 Bft)
16.09.2013 09:42 11,4 C 10,6 C 95 % 1001,1 hPa 0,0 l/m 0 min 2 min 0,0 UV-I 86 W/m 0,0 km/h (0 Bft)
16.09.2013 09:44 11,4 C 10,6 C 95 % 1001,0 hPa 0,0 l/m 0 min 2 min 0,0 UV-I 65 W/m 0,0 km/h (0 Bft)
16.09.2013 09:46 11,4 C 10,6 C 95 % 1001,1 hPa 0,0 l/m 0 min 2 min 0,0 UV-I 46 W/m 2,6 km/h (1 Bft)
16.09.2013 09:48 11,4 C 10,6 C 95 % 1001,1 hPa 0,0 l/m 0 min 0 min 0,0 UV-I 39 W/m 2,6 km/h (1 Bft)
16.09.2013 09:50 11,5 C 10,6 C 95 % 1001,1 hPa 0,0 l/m 0 min 0 min 0,0 UV-I 46 W/m 0,0 km/h (0 Bft)
16.09.2013 09:52 11,5 C 10,6 C 95 % 1001,2 hPa 0,0 l/m 0 min 0 min 0,0 UV-I 60 W/m 0,0 km/h (0 Bft)
16.09.2013 09:54 11,6 C 10,6 C 95 % 1001,2 hPa 0,0 l/m 0 min 0 min 0,0 UV-I 70 W/m 0,0 km/h (0 Bft)
16.09.2013 09:56 11,6 C 10,6 C 95 % 1001,2 hPa 0,0 l/m 0 min 0 min 0,0 UV-I 69 W/m 0,0 km/h (0 Bft)
16.09.2013 09:58 11,6 C 10,6 C 95 % 1001,2 hPa 0,0 l/m 0 min 0 min 0,0 UV-I 60 W/m 2,6 km/h (1 Bft)
16.09.2013 10:00 11,6 C 10,6 C 95 % 1001,2 hPa 0,0 l/m 0 min 0 min 0,0 UV-I 63 W/m 0,0 km/h (0 Bft)
16.09.2013 10:02 11,6 C 10,6 C 95 % 1001,2 hPa 0,0 l/m 0 min 0 min 0,0 UV-I 72 W/m 0,0 km/h (0 Bft)
16.09.2013 10:06 11,7 C 10,6 C 95 % 1001,3 hPa 0,0 l/m 0 min 0 min 0,0 UV-I 91 W/m 0,0 km/h (0 Bft)
16.09.2013 10:08 11,8 C 10,6 C 95 % 1001,3 hPa 0,0 l/m 0 min 0 min 0,0 UV-I 97 W/m 0,0 km/h (0 Bft)
16.09.2013 10:10 11,8 C 11,1 C 95 % 1001,3 hPa 0,0 l/m 0 min 0 min 0,0 UV-I 91 W/m 0,0 km/h (0 Bft)
16.09.2013 10:12 11,8 C 11,1 C 95 % 1001,3 hPa 0,0 l/m 0 min 0 min 0,0 UV-I 91 W/m 0,0 km/h (0 Bft)
16.09.2013 10:14 11,8 C 10,6 C 95 % 1001,2 hPa 0,0 l/m 0 min 0 min 0,0 UV-I 84 W/m 0,0 km/h (0 Bft)
16.09.2013 10:16 11,8 C 10,6 C 95 % 1001,2 hPa 0,0 l/m 0 min 0 min 0,0 UV-I 81 W/m 0,0 km/h (0 Bft)
16.09.2013 10:18 11,7 C 10,6 C 95 % 1001,3 hPa 0,0 l/m 0 min 0 min 0,0 UV-I 84 W/m 0,0 km/h (0 Bft)
16.09.2013 10:20 11,7 C 10,6 C 95 % 1001,3 hPa 0,0 l/m 0 min 0 min 0,0 UV-I 88 W/m 0,0 km/h (0 Bft)
16.09.2013 10:22 11,7 C 10,6 C 95 % 1001,2 hPa 0,0 l/m 0 min 0 min 0,0 UV-I 105 W/m 0,0 km/h (0 Bft)
16.09.2013 10:24 11,7 C 10,6 C 94 % 1001,3 hPa 0,0 l/m 0 min 0 min 0,0 UV-I 125 W/m 7,7 km/h (2 Bft)
16.09.2013 10:26 11,7 C 10,6 C 94 % 1001,3 hPa 0,0 l/m 0 min 0 min 0,0 UV-I 142 W/m 0,0 km/h (0 Bft)
16.09.2013 10:28 11,8 C 11,1 C 94 % 1001,3 hPa 0,0 l/m 0 min 0 min 0,0 UV-I 160 W/m 0,0 km/h (0 Bft)
16.09.2013 10:30 11,9 C 11,1 C 94 % 1001,3 hPa 0,0 l/m 0 min 0 min 0,0 UV-I 176 W/m 0,0 km/h (0 Bft)
16.09.2013 10:32 12,0 C 11,1 C 94 % 1001,3 hPa 0,0 l/m 0 min 0 min 0,0 UV-I 183 W/m 0,0 km/h (0 Bft)
16.09.2013 10:34 12,1 C 11,1 C 94 % 1001,3 hPa 0,0 l/m 0 min 0 min 0,0 UV-I 185 W/m 0,0 km/h (0 Bft)
16.09.2013 10:36 12,2 C 11,1 C 94 % 1001,4 hPa 0,0 l/m 0 min 0 min 0,0 UV-I 183 W/m 2,6 km/h (1 Bft)
16.09.2013 10:38 12,2 C 11,1 C 94 % 1001,3 hPa 0,0 l/m 0 min 0 min 0,0 UV-I 179 W/m 0,0 km/h (0 Bft)
16.09.2013 10:40 12,2 C 11,1 C 93 % 1001,3 hPa 0,0 l/m 0 min 0 min 0,5 UV-I 209 W/m 5,1 km/h (1 Bft)
16.09.2013 10:42 12,2 C 11,1 C 93 % 1001,3 hPa 0,0 l/m 0 min 0 min 0,5 UV-I 165 W/m 2,6 km/h (1 Bft)
16.09.2013 10:44 12,3 C 11,1 C 93 % 1001,3 hPa 0,0 l/m 0 min 0 min 0,5 UV-I 127 W/m 0,0 km/h (0 Bft)
16.09.2013 10:46 12,2 C 10,6 C 93 % 1001,4 hPa 0,0 l/m 0 min 0 min 1,0 UV-I 141 W/m 2,6 km/h (1 Bft)
16.09.2013 10:48 12,3 C 11,1 C 93 % 1001,3 hPa 0,0 l/m 2 min 0 min 1,1 UV-I 420 W/m 2,6 km/h (1 Bft)
16.09.2013 10:50 12,6 C 11,1 C 93 % 1001,4 hPa 0,0 l/m 2 min 0 min 1,2 UV-I 441 W/m 0,0 km/h (0 Bft)
16.09.2013 10:52 12,7 C 11,7 C 93 % 1001,4 hPa 0,0 l/m 2 min 0 min 1,2 UV-I 439 W/m 7,7 km/h (2 Bft)
16.09.2013 10:54 12,8 C 11,7 C 93 % 1001,4 hPa 0,0 l/m 2 min 0 min 1,3 UV-I 443 W/m 5,1 km/h (1 Bft)
16.09.2013 10:56 13,0 C 11,7 C 92 % 1001,4 hPa 0,0 l/m 2 min 0 min 1,3 UV-I 432 W/m 0,0 km/h (0 Bft)
16.09.2013 10:58 13,1 C 11,7 C 92 % 1001,4 hPa 0,0 l/m 2 min 0 min 1,3 UV-I 457 W/m 15,4 km/h (3 Bft)
16.09.2013 11:00 13,2 C 11,7 C 90 % 1001,4 hPa 0,0 l/m 2 min 0 min 1,4 UV-I 483 W/m 2,6 km/h (1 Bft)
16.09.2013 11:02 13,4 C 11,7 C 90 % 1001,3 hPa 0,0 l/m 2 min 0 min 1,4 UV-I 529 W/m 7,7 km/h (2 Bft)
16.09.2013 11:06 13,7 C 12,2 C 89 % 1001,4 hPa 0,0 l/m 2 min 0 min 1,0 UV-I 629 W/m 10,3 km/h (2 Bft)
16.09.2013 11:08 13,9 C 12,2 C 89 % 1001,3 hPa 0,0 l/m 2 min 0 min 0,9 UV-I 629 W/m 5,1 km/h (1 Bft)
16.09.2013 11:10 13,9 C 12,2 C 89 % 1001,3 hPa 0,0 l/m 0 min 0 min 0,0 UV-I 225 W/m 2,6 km/h (1 Bft)
16.09.2013 11:12 13,8 C 11,7 C 87 % 1001,4 hPa 0,0 l/m 0 min 0 min 0,0 UV-I 148 W/m 10,3 km/h (2 Bft)
16.09.2013 11:14 13,7 C 11,7 C 86 % 1001,3 hPa 0,0 l/m 0 min 0 min 0,0 UV-I 90 W/m 7,7 km/h (2 Bft)
16.09.2013 11:16 13,6 C 11,7 C 87 % 1001,4 hPa 0,0 l/m 0 min 0 min 0,0 UV-I 70 W/m 0,0 km/h (0 Bft)
16.09.2013 11:18 13,4 C 11,7 C 88 % 1001,5 hPa 0,0 l/m 0 min 0 min 0,0 UV-I 83 W/m 2,6 km/h (1 Bft)
16.09.2013 11:20 13,3 C 11,7 C 87 % 1001,4 hPa 0,0 l/m 0 min 0 min 0,0 UV-I 113 W/m 0,0 km/h (0 Bft)
16.09.2013 11:22 13,2 C 11,1 C 87 % 1001,3 hPa 0,0 l/m 0 min 0 min 0,0 UV-I 97 W/m 0,0 km/h (0 Bft)
16.09.2013 11:24 13,1 C 11,1 C 87 % 1001,4 hPa 0,0 l/m 0 min 0 min 0,6 UV-I 137 W/m 12,9 km/h (3 Bft)
16.09.2013 11:26 13,1 C 11,7 C 88 % 1001,4 hPa 0,0 l/m 0 min 0 min 0,8 UV-I 197 W/m 15,4 km/h (3 Bft)
16.09.2013 11:28 13,1 C 11,7 C 88 % 1001,3 hPa 0,0 l/m 0 min 0 min 0,9 UV-I 188 W/m 10,3 km/h (2 Bft)
16.09.2013 11:30 13,1 C 11,7 C 87 % 1001,2 hPa 0,0 l/m 0 min 0 min 0,9 UV-I 183 W/m 18,0 km/h (3 Bft)
16.09.2013 11:32 13,1 C 11,7 C 88 % 1001,3 hPa 0,0 l/m 0 min 0 min 1,9 UV-I 265 W/m 7,7 km/h (2 Bft)
16.09.2013 11:34 13,2 C 12,2 C 88 % 1001,3 hPa 0,0 l/m 0 min 0 min 1,8 UV-I 265 W/m 7,7 km/h (2 Bft)
16.09.2013 11:36 13,4 C 12,2 C 87 % 1001,3 hPa 0,0 l/m 0 min 0 min 0,9 UV-I 214 W/m 7,7 km/h (2 Bft)
16.09.2013 11:38 13,7 C 12,2 C 87 % 1001,3 hPa 0,0 l/m 2 min 0 min 2,1 UV-I 621 W/m 2,6 km/h (1 Bft)
16.09.2013 11:40 14,0 C 12,8 C 87 % 1001,3 hPa 0,0 l/m 2 min 0 min 2,1 UV-I 621 W/m 10,3 km/h (2 Bft)
16.09.2013 11:42 14,2 C 12,8 C 85 % 1001,3 hPa 0,0 l/m 2 min 0 min 1,3 UV-I 645 W/m 15,4 km/h (3 Bft)
16.09.2013 11:44 14,2 C 12,8 C 85 % 1001,3 hPa 0,0 l/m 2 min 0 min 1,6 UV-I 666 W/m 12,9 km/h (3 Bft)
16.09.2013 11:46 14,2 C 12,8 C 85 % 1001,3 hPa 0,0 l/m 0 min 0 min 1,1 UV-I 193 W/m 7,7 km/h (2 Bft)
16.09.2013 11:48 14,3 C 13,3 C 85 % 1001,3 hPa 0,0 l/m 2 min 0 min 2,1 UV-I 684 W/m 7,7 km/h (2 Bft)
16.09.2013 11:50 14,5 C 13,3 C 84 % 1001,3 hPa 0,0 l/m 0 min 0 min 1,1 UV-I 253 W/m 2,6 km/h (1 Bft)
16.09.2013 11:52 14,5 C 13,3 C 83 % 1001,3 hPa 0,0 l/m 0 min 0 min 1,1 UV-I 299 W/m 20,6 km/h (4 Bft)
16.09.2013 11:54 14,4 C 12,8 C 82 % 1001,3 hPa 0,0 l/m 0 min 0 min 0,8 UV-I 255 W/m 10,3 km/h (2 Bft)
16.09.2013 11:56 14,2 C 12,8 C 81 % 1001,3 hPa 0,0 l/m 0 min 0 min 0,6 UV-I 318 W/m 10,3 km/h (2 Bft)
16.09.2013 11:58 14,2 C 12,8 C 82 % 1001,3 hPa 0,0 l/m 0 min 0 min 0,5 UV-I 185 W/m 2,6 km/h (1 Bft)
16.09.2013 12:00 14,2 C 12,8 C 81 % 1001,3 hPa 0,0 l/m 0 min 0 min 0,0 UV-I 156 W/m 12,9 km/h (3 Bft)
16.09.2013 12:02 14,1 C 12,2 C 79 % 1001,3 hPa 0,0 l/m 0 min 0 min 0,0 UV-I 162 W/m 12,9 km/h (3 Bft)
16.09.2013 12:06 13,7 C 12,2 C 77 % 1001,2 hPa 0,0 l/m 0 min 0 min 0,5 UV-I 135 W/m 10,3 km/h (2 Bft)
16.09.2013 12:08 13,6 C 11,7 C 78 % 1001,2 hPa 0,0 l/m 0 min 0 min 1,8 UV-I 156 W/m 12,9 km/h (3 Bft)
16.09.2013 12:10 13,5 C 11,7 C 78 % 1001,2 hPa 0,0 l/m 0 min 0 min 0,6 UV-I 146 W/m 15,4 km/h (3 Bft)
16.09.2013 12:12 13,4 C 11,7 C 79 % 1001,2 hPa 0,0 l/m 0 min 0 min 0,8 UV-I 206 W/m 10,3 km/h (2 Bft)
16.09.2013 12:14 13,4 C 11,7 C 78 % 1001,3 hPa 0,0 l/m 0 min 0 min 0,7 UV-I 171 W/m 20,6 km/h (4 Bft)
16.09.2013 12:16 13,3 C 12,2 C 78 % 1001,3 hPa 0,0 l/m 0 min 0 min 0,7 UV-I 181 W/m 0,0 km/h (0 Bft)
16.09.2013 12:18 13,4 C 12,2 C 79 % 1001,2 hPa 0,0 l/m 0 min 0 min 1,2 UV-I 181 W/m 5,1 km/h (1 Bft)
16.09.2013 12:20 13,6 C 12,2 C 79 % 1001,2 hPa 0,0 l/m 0 min 0 min 1,0 UV-I 209 W/m 2,6 km/h (1 Bft)
16.09.2013 12:22 13,6 C 12,2 C 79 % 1001,3 hPa 0,0 l/m 0 min 0 min 1,0 UV-I 135 W/m 10,3 km/h (2 Bft)
16.09.2013 12:24 13,4 C 12,2 C 76 % 1001,2 hPa 0,0 l/m 0 min 0 min 1,0 UV-I 181 W/m 18,0 km/h (3 Bft)
16.09.2013 12:26 13,4 C 11,7 C 76 % 1001,2 hPa 0,0 l/m 0 min 0 min 0,9 UV-I 84 W/m 0,0 km/h (0 Bft)
16.09.2013 12:28 13,3 C 11,7 C 77 % 1001,2 hPa 0,0 l/m 0 min 0 min 0,9 UV-I 107 W/m 12,9 km/h (3 Bft)
16.09.2013 12:30 13,2 C 11,7 C 77 % 1001,2 hPa 0,0 l/m 0 min 0 min 0,8 UV-I 63 W/m 5,1 km/h (1 Bft)
16.09.2013 12:32 13,2 C 11,7 C 78 % 1001,2 hPa 0,0 l/m 2 min 0 min 2,5 UV-I 629 W/m 12,9 km/h (3 Bft)
16.09.2013 12:34 13,5 C 12,2 C 76 % 1001,3 hPa 0,0 l/m 2 min 0 min 2,6 UV-I 631 W/m 15,4 km/h (3 Bft)
16.09.2013 12:36 14,0 C 12,8 C 77 % 1001,1 hPa 0,0 l/m 2 min 0 min 2,6 UV-I 631 W/m 10,3 km/h (2 Bft)
16.09.2013 12:38 14,3 C 12,8 C 76 % 1001,1 hPa 0,0 l/m 2 min 0 min 2,5 UV-I 640 W/m 20,6 km/h (4 Bft)
16.09.2013 12:40 14,6 C 13,3 C 74 % 1001,2 hPa 0,0 l/m 2 min 0 min 2,4 UV-I 642 W/m 15,4 km/h (3 Bft)
16.09.2013 12:42 14,8 C 13,3 C 73 % 1001,1 hPa 0,0 l/m 2 min 0 min 2,2 UV-I 636 W/m 30,9 km/h (5 Bft)
16.09.2013 12:44 14,9 C 13,9 C 73 % 1001,0 hPa 0,0 l/m 2 min 0 min 2,0 UV-I 636 W/m 18,0 km/h (3 Bft)
16.09.2013 12:46 15,0 C 13,9 C 73 % 1001,0 hPa 0,0 l/m 2 min 0 min 1,8 UV-I 642 W/m 18,0 km/h (3 Bft)
16.09.2013 12:48 15,2 C 13,9 C 74 % 1001,0 hPa 0,0 l/m 2 min 0 min 1,5 UV-I 654 W/m 7,7 km/h (2 Bft)
16.09.2013 12:50 15,3 C 13,9 C 72 % 1001,0 hPa 0,0 l/m 2 min 0 min 1,4 UV-I 684 W/m 12,9 km/h (3 Bft)
16.09.2013 12:52 15,3 C 13,9 C 70 % 1000,9 hPa 0,0 l/m 2 min 0 min 1,3 UV-I 663 W/m 15,4 km/h (3 Bft)
16.09.2013 12:54 15,3 C 13,9 C 69 % 1000,9 hPa 0,0 l/m 2 min 0 min 1,2 UV-I 659 W/m 15,4 km/h (3 Bft)
16.09.2013 12:56 15,4 C 14,4 C 70 % 1000,9 hPa 0,0 l/m 2 min 0 min 1,2 UV-I 636 W/m 15,4 km/h (3 Bft)
16.09.2013 12:58 15,4 C 14,4 C 66 % 1001,0 hPa 0,0 l/m 2 min 0 min 1,3 UV-I 652 W/m 12,9 km/h (3 Bft)
16.09.2013 13:00 15,4 C 14,4 C 66 % 1000,9 hPa 0,0 l/m 2 min 0 min 1,2 UV-I 671 W/m 12,9 km/h (3 Bft)
16.09.2013 13:02 15,3 C 13,9 C 64 % 1000,9 hPa 0,0 l/m 2 min 0 min 1,3 UV-I 666 W/m 20,6 km/h (4 Bft)
16.09.2013 13:06 15,6 C 14,4 C 66 % 1000,9 hPa 0,0 l/m 2 min 0 min 1,3 UV-I 652 W/m 20,6 km/h (4 Bft)
16.09.2013 13:08 15,7 C 14,4 C 67 % 1000,9 hPa 0,0 l/m 2 min 0 min 1,3 UV-I 666 W/m 12,9 km/h (3 Bft)
16.09.2013 13:10 15,7 C 14,4 C 67 % 1000,9 hPa 0,0 l/m 2 min 0 min 1,3 UV-I 677 W/m 12,9 km/h (3 Bft)
16.09.2013 13:12 15,8 C 15,0 C 66 % 1000,9 hPa 0,0 l/m 2 min 0 min 1,4 UV-I 733 W/m 15,4 km/h (3 Bft)
16.09.2013 13:14 15,8 C 15,0 C 67 % 1000,9 hPa 0,0 l/m 2 min 0 min 1,4 UV-I 733 W/m 7,7 km/h (2 Bft)
16.09.2013 13:16 15,8 C 15,0 C 68 % 1000,9 hPa 0,0 l/m 2 min 0 min 1,5 UV-I 788 W/m 15,4 km/h (3 Bft)
16.09.2013 13:18 15,9 C 15,0 C 68 % 1000,8 hPa 0,0 l/m 2 min 0 min 1,4 UV-I 752 W/m 15,4 km/h (3 Bft)
16.09.2013 13:20 16,1 C 15,0 C 68 % 1000,9 hPa 0,0 l/m 2 min 0 min 1,4 UV-I 766 W/m 7,7 km/h (2 Bft)
16.09.2013 13:22 16,3 C 15,6 C 65 % 1000,9 hPa 0,0 l/m 2 min 0 min 1,4 UV-I 786 W/m 15,4 km/h (3 Bft)
16.09.2013 13:24 16,2 C 15,6 C 65 % 1000,8 hPa 0,0 l/m 2 min 0 min 1,4 UV-I 729 W/m 20,6 km/h (4 Bft)
16.09.2013 13:26 16,2 C 15,0 C 63 % 1000,8 hPa 0,0 l/m 2 min 0 min 1,4 UV-I 691 W/m 23,2 km/h (4 Bft)
16.09.2013 13:28 16,1 C 15,0 C 63 % 1000,8 hPa 0,0 l/m 2 min 0 min 1,4 UV-I 663 W/m 36,0 km/h (5 Bft)
16.09.2013 13:30 15,9 C 14,4 C 62 % 1001,0 hPa 0,0 l/m 2 min 0 min 1,5 UV-I 664 W/m 15,4 km/h (3 Bft)
16.09.2013 13:32 15,9 C 15,0 C 63 % 1000,9 hPa 0,0 l/m 2 min 0 min 1,7 UV-I 654 W/m 12,9 km/h (3 Bft)
16.09.2013 13:34 15,9 C 14,4 C 62 % 1001,1 hPa 0,0 l/m 2 min 0 min 1,9 UV-I 657 W/m 15,4 km/h (3 Bft)
16.09.2013 13:36 15,9 C 14,4 C 63 % 1001,0 hPa 0,0 l/m 2 min 0 min 2,2 UV-I 654 W/m 23,2 km/h (4 Bft)
16.09.2013 13:38 16,1 C 15,0 C 64 % 1001,0 hPa 0,0 l/m 2 min 0 min 2,4 UV-I 668 W/m 12,9 km/h (3 Bft)
16.09.2013 13:40 16,1 C 14,4 C 64 % 1000,9 hPa 0,0 l/m 2 min 0 min 2,4 UV-I 673 W/m 12,9 km/h (3 Bft)
16.09.2013 13:42 15,8 C 14,4 C 63 % 1000,9 hPa 0,0 l/m 0 min 0 min 2,8 UV-I 283 W/m 28,3 km/h (4 Bft)
16.09.2013 13:44 15,7 C 15,0 C 65 % 1001,0 hPa 0,0 l/m 2 min 0 min 2,9 UV-I 735 W/m 12,9 km/h (3 Bft)
16.09.2013 13:46 15,8 C 15,0 C 65 % 1000,9 hPa 0,0 l/m 2 min 0 min 3,0 UV-I 761 W/m 10,3 km/h (2 Bft)
16.09.2013 13:48 16,1 C 15,0 C 64 % 1000,9 hPa 0,0 l/m 2 min 0 min 2,9 UV-I 798 W/m 20,6 km/h (4 Bft)
16.09.2013 13:50 16,4 C 15,6 C 66 % 1001,0 hPa 0,0 l/m 2 min 0 min 2,2 UV-I 824 W/m 7,7 km/h (2 Bft)
16.09.2013 13:52 16,5 C 15,6 C 66 % 1001,0 hPa 0,0 l/m 2 min 0 min 3,0 UV-I 833 W/m 5,1 km/h (1 Bft)
16.09.2013 13:54 16,4 C 15,6 C 62 % 1001,0 hPa 0,0 l/m 0 min 0 min 1,9 UV-I 250 W/m 30,9 km/h (5 Bft)
16.09.2013 13:56 16,0 C 15,0 C 59 % 1001,0 hPa 0,0 l/m 0 min 0 min 1,4 UV-I 302 W/m 23,2 km/h (4 Bft)
16.09.2013 13:58 15,7 C 15,0 C 61 % 1001,0 hPa 0,0 l/m 0 min 0 min 2,9 UV-I 274 W/m 20,6 km/h (4 Bft)
16.09.2013 14:00 15,5 C 14,4 C 60 % 1001,0 hPa 0,0 l/m 2 min 0 min 1,5 UV-I 520 W/m 25,7 km/h (4 Bft)
16.09.2013 14:02 15,5 C 15,0 C 64 % 1001,0 hPa 0,0 l/m 2 min 0 min 2,9 UV-I 520 W/m 12,9 km/h (3 Bft)
16.09.2013 14:06 15,8 C 14,4 C 62 % 1000,9 hPa 0,0 l/m 0 min 0 min 1,3 UV-I 127 W/m 25,7 km/h (4 Bft)
16.09.2013 14:08 15,7 C 14,4 C 62 % 1000,8 hPa 0,0 l/m 2 min 0 min 2,7 UV-I 693 W/m 15,4 km/h (3 Bft)
16.09.2013 14:10 15,7 C 14,4 C 61 % 1000,9 hPa 0,0 l/m 2 min 0 min 2,7 UV-I 680 W/m 18,0 km/h (3 Bft)
16.09.2013 14:12 15,7 C 14,4 C 63 % 1000,9 hPa 0,0 l/m 2 min 0 min 2,7 UV-I 680 W/m 18,0 km/h (3 Bft)
16.09.2013 14:14 15,7 C 14,4 C 61 % 1001,0 hPa 0,0 l/m 2 min 0 min 2,7 UV-I 687 W/m 20,6 km/h (4 Bft)
16.09.2013 14:16 15,8 C 14,4 C 61 % 1001,0 hPa 0,0 l/m 2 min 0 min 2,6 UV-I 675 W/m 0,0 km/h (0 Bft)
16.09.2013 14:18 15,9 C 14,4 C 62 % 1000,9 hPa 0,0 l/m 2 min 0 min 2,6 UV-I 663 W/m 28,3 km/h (4 Bft)
16.09.2013 14:20 15,9 C 15,0 C 59 % 1000,8 hPa 0,0 l/m 2 min 0 min 2,7 UV-I 703 W/m 15,4 km/h (3 Bft)
16.09.2013 14:22 16,2 C 15,0 C 60 % 1000,8 hPa 0,0 l/m 2 min 0 min 2,7 UV-I 761 W/m 15,4 km/h (3 Bft)
16.09.2013 14:24 16,2 C 15,0 C 58 % 1000,8 hPa 0,0 l/m 2 min 0 min 2,7 UV-I 744 W/m 18,0 km/h (3 Bft)
16.09.2013 14:26 16,4 C 15,6 C 59 % 1000,9 hPa 0,0 l/m 2 min 0 min 2,6 UV-I 777 W/m 15,4 km/h (3 Bft)
16.09.2013 14:28 16,5 C 15,6 C 56 % 1001,0 hPa 0,0 l/m 2 min 0 min 2,3 UV-I 816 W/m 18,0 km/h (3 Bft)
16.09.2013 14:30 16,4 C 15,6 C 56 % 1000,8 hPa 0,0 l/m 2 min 0 min 2,5 UV-I 816 W/m 15,4 km/h (3 Bft)
16.09.2013 14:32 16,6 C 15,6 C 58 % 1000,8 hPa 0,0 l/m 2 min 0 min 2,7 UV-I 802 W/m 10,3 km/h (2 Bft)
16.09.2013 14:34 16,7 C 16,1 C 59 % 1000,8 hPa 0,0 l/m 2 min 0 min 2,7 UV-I 765 W/m 12,9 km/h (3 Bft)
16.09.2013 14:36 16,8 C 15,6 C 56 % 1000,8 hPa 0,0 l/m 2 min 0 min 2,7 UV-I 768 W/m 20,6 km/h (4 Bft)
16.09.2013 14:38 16,7 C 15,6 C 56 % 1000,8 hPa 0,0 l/m 2 min 0 min 2,6 UV-I 649 W/m 28,3 km/h (4 Bft)
16.09.2013 14:40 16,7 C 15,6 C 56 % 1000,8 hPa 0,0 l/m 2 min 0 min 2,6 UV-I 735 W/m 18,0 km/h (3 Bft)
16.09.2013 14:42 16,7 C 16,1 C 57 % 1000,8 hPa 0,0 l/m 2 min 0 min 2,3 UV-I 738 W/m 7,7 km/h (2 Bft)
16.09.2013 14:44 16,8 C 16,1 C 58 % 1000,8 hPa 0,0 l/m 2 min 0 min 2,5 UV-I 745 W/m 18,0 km/h (3 Bft)
16.09.2013 14:46 16,8 C 16,1 C 58 % 1000,7 hPa 0,0 l/m 2 min 0 min 2,5 UV-I 758 W/m 10,3 km/h (2 Bft)
16.09.2013 14:48 16,6 C 15,6 C 55 % 1000,8 hPa 0,0 l/m 0 min 0 min 1,3 UV-I 207 W/m 36,0 km/h (5 Bft)
16.09.2013 14:50 16,5 C 15,0 C 56 % 1000,6 hPa 0,0 l/m 0 min 0 min 1,2 UV-I 230 W/m 20,6 km/h (4 Bft)
16.09.2013 14:52 16,2 C 15,0 C 55 % 1000,7 hPa 0,0 l/m 0 min 0 min 2,0 UV-I 237 W/m 18,0 km/h (3 Bft)
16.09.2013 14:54 16,1 C 15,0 C 57 % 1000,7 hPa 0,0 l/m 0 min 0 min 1,2 UV-I 237 W/m 7,7 km/h (2 Bft)
16.09.2013 14:56 16,0 C 14,4 C 57 % 1000,6 hPa 0,0 l/m 0 min 0 min 1,3 UV-I 165 W/m 12,9 km/h (3 Bft)
16.09.2013 14:58 16,0 C 15,0 C 58 % 1000,7 hPa 0,0 l/m 2 min 0 min 2,2 UV-I 654 W/m 10,3 km/h (2 Bft)
16.09.2013 15:00 16,1 C 15,0 C 58 % 1000,7 hPa 0,0 l/m 2 min 0 min 2,3 UV-I 654 W/m 23,2 km/h (4 Bft)
16.09.2013 15:02 16,1 C 15,0 C 56 % 1000,6 hPa 0,0 l/m 2 min 0 min 2,3 UV-I 628 W/m 20,6 km/h (4 Bft)
16.09.2013 15:06 16,1 C 14,4 C 55 % 1000,6 hPa 0,0 l/m 0 min 0 min 0,9 UV-I 74 W/m 28,3 km/h (4 Bft)
16.09.2013 15:08 15,8 C 13,9 C 57 % 1000,6 hPa 0,0 l/m 0 min 0 min 1,0 UV-I 97 W/m 20,6 km/h (4 Bft)
16.09.2013 15:10 15,6 C 13,9 C 57 % 1000,6 hPa 0,0 l/m 0 min 0 min 1,0 UV-I 95 W/m 12,9 km/h (3 Bft)
16.09.2013 15:12 15,4 C 13,9 C 58 % 1000,6 hPa 0,0 l/m 2 min 0 min 2,1 UV-I 608 W/m 15,4 km/h (3 Bft)
16.09.2013 15:14 15,7 C 14,4 C 56 % 1000,6 hPa 0,0 l/m 2 min 0 min 2,0 UV-I 594 W/m 28,3 km/h (4 Bft)
16.09.2013 15:16 15,9 C 14,4 C 57 % 1000,6 hPa 0,0 l/m 2 min 0 min 2,1 UV-I 596 W/m 15,4 km/h (3 Bft)
16.09.2013 15:18 16,1 C 15,0 C 58 % 1000,5 hPa 0,0 l/m 2 min 0 min 2,0 UV-I 606 W/m 7,7 km/h (2 Bft)
16.09.2013 15:20 16,3 C 15,0 C 57 % 1000,5 hPa 0,0 l/m 0 min 0 min 1,1 UV-I 128 W/m 5,1 km/h (1 Bft)
16.09.2013 15:22 16,2 C 15,0 C 56 % 1000,5 hPa 0,0 l/m 0 min 0 min 1,7 UV-I 193 W/m 20,6 km/h (4 Bft)
16.09.2013 15:24 16,0 C 14,4 C 56 % 1000,5 hPa 0,0 l/m 0 min 0 min 0,9 UV-I 137 W/m 20,6 km/h (4 Bft)
16.09.2013 15:26 15,7 C 14,4 C 55 % 1000,4 hPa 0,0 l/m 0 min 0 min 0,8 UV-I 137 W/m 18,0 km/h (3 Bft)
16.09.2013 15:28 15,4 C 13,9 C 54 % 1000,4 hPa 0,0 l/m 0 min 0 min 1,4 UV-I 185 W/m 18,0 km/h (3 Bft)
16.09.2013 15:30 15,4 C 14,4 C 57 % 1000,4 hPa 0,0 l/m 2 min 0 min 1,8 UV-I 675 W/m 12,9 km/h (3 Bft)
16.09.2013 15:32 15,7 C 15,0 C 57 % 1000,4 hPa 0,0 l/m 2 min 0 min 1,7 UV-I 668 W/m 12,9 km/h (3 Bft)
16.09.2013 15:34 16,1 C 15,0 C 57 % 1000,4 hPa 0,0 l/m 2 min 0 min 1,9 UV-I 673 W/m 20,6 km/h (4 Bft)
16.09.2013 15:36 16,3 C 15,6 C 56 % 1000,5 hPa 0,0 l/m 2 min 0 min 1,9 UV-I 631 W/m 12,9 km/h (3 Bft)
16.09.2013 15:38 16,5 C 15,6 C 55 % 1000,5 hPa 0,0 l/m 2 min 0 min 1,8 UV-I 622 W/m 12,9 km/h (3 Bft)
16.09.2013 15:40 16,6 C 16,1 C 57 % 1000,4 hPa 0,0 l/m 2 min 0 min 1,9 UV-I 636 W/m 12,9 km/h (3 Bft)
16.09.2013 15:42 16,8 C 16,1 C 57 % 1000,4 hPa 0,0 l/m 2 min 0 min 1,7 UV-I 663 W/m 15,4 km/h (3 Bft)
16.09.2013 15:44 16,8 C 16,1 C 54 % 1000,5 hPa 0,0 l/m 2 min 0 min 0,9 UV-I 575 W/m 30,9 km/h (5 Bft)
16.09.2013 15:46 16,6 C 15,6 C 54 % 1000,5 hPa 0,0 l/m 0 min 0 min 0,8 UV-I 221 W/m 23,2 km/h (4 Bft)
16.09.2013 15:48 16,2 C 15,0 C 54 % 1000,5 hPa 0,0 l/m 0 min 0 min 0,5 UV-I 167 W/m 12,9 km/h (3 Bft)
16.09.2013 15:50 15,8 C 14,4 C 55 % 1000,5 hPa 0,0 l/m 0 min 0 min 0,0 UV-I 135 W/m 30,9 km/h (5 Bft)
16.09.2013 15:52 15,6 C 13,9 C 56 % 1000,6 hPa 0,0 l/m 0 min 0 min 0,0 UV-I 135 W/m 23,2 km/h (4 Bft)
16.09.2013 15:54 15,3 C 13,9 C 57 % 1000,6 hPa 0,0 l/m 0 min 0 min 0,0 UV-I 121 W/m 2,6 km/h (1 Bft)
16.09.2013 15:56 15,2 C 13,9 C 57 % 1000,6 hPa 0,0 l/m 0 min 0 min 0,0 UV-I 169 W/m 15,4 km/h (3 Bft)
16.09.2013 15:58 15,0 C 13,9 C 58 % 1000,7 hPa 0,0 l/m 0 min 0 min 0,5 UV-I 172 W/m 20,6 km/h (4 Bft)
16.09.2013 16:00 14,8 C 13,9 C 60 % 1000,7 hPa 0,0 l/m 0 min 0 min 0,7 UV-I 172 W/m 7,7 km/h (2 Bft)
16.09.2013 16:02 14,9 C 13,9 C 60 % 1000,6 hPa 0,0 l/m 2 min 0 min 1,4 UV-I 536 W/m 10,3 km/h (2 Bft)
16.09.2013 16:06 15,3 C 14,4 C 61 % 1000,5 hPa 0,0 l/m 2 min 0 min 1,4 UV-I 517 W/m 12,9 km/h (3 Bft)
16.09.2013 16:08 15,6 C 14,4 C 59 % 1000,6 hPa 0,0 l/m 2 min 0 min 1,3 UV-I 510 W/m 12,9 km/h (3 Bft)
16.09.2013 16:10 15,8 C 15,0 C 58 % 1000,5 hPa 0,0 l/m 2 min 0 min 1,3 UV-I 499 W/m 12,9 km/h (3 Bft)
16.09.2013 16:12 15,7 C 14,4 C 58 % 1000,4 hPa 0,0 l/m 2 min 0 min 1,3 UV-I 483 W/m 12,9 km/h (3 Bft)
16.09.2013 16:14 15,8 C 14,4 C 59 % 1000,4 hPa 0,0 l/m 2 min 0 min 1,2 UV-I 485 W/m 7,7 km/h (2 Bft)
16.09.2013 16:16 15,8 C 14,4 C 60 % 1000,3 hPa 0,0 l/m 2 min 0 min 1,2 UV-I 476 W/m 0,0 km/h (0 Bft)
16.09.2013 16:18 15,9 C 15,0 C 58 % 1000,4 hPa 0,0 l/m 2 min 0 min 1,2 UV-I 487 W/m 0,0 km/h (0 Bft)
16.09.2013 16:20 16,1 C 14,4 C 58 % 1000,3 hPa 0,0 l/m 2 min 0 min 0,5 UV-I 473 W/m 5,1 km/h (1 Bft)
16.09.2013 16:22 15,9 C 14,4 C 58 % 1000,4 hPa 0,0 l/m 0 min 0 min 0,6 UV-I 72 W/m 7,7 km/h (2 Bft)
16.09.2013 16:24 15,6 C 13,9 C 59 % 1000,4 hPa 0,0 l/m 2 min 0 min 1,1 UV-I 485 W/m 12,9 km/h (3 Bft)
16.09.2013 16:26 15,6 C 14,4 C 59 % 1000,4 hPa 0,0 l/m 2 min 0 min 1,1 UV-I 485 W/m 7,7 km/h (2 Bft)
16.09.2013 16:28 15,8 C 14,4 C 60 % 1000,4 hPa 0,0 l/m 2 min 0 min 1,0 UV-I 475 W/m 7,7 km/h (2 Bft)
16.09.2013 16:30 15,7 C 13,9 C 60 % 1000,4 hPa 0,0 l/m 0 min 0 min 0,0 UV-I 70 W/m 0,0 km/h (0 Bft)
16.09.2013 16:32 15,4 C 13,9 C 59 % 1000,4 hPa 0,0 l/m 0 min 0 min 0,0 UV-I 178 W/m 7,7 km/h (2 Bft)
16.09.2013 16:34 15,2 C 13,3 C 59 % 1000,3 hPa 0,0 l/m 0 min 0 min 0,0 UV-I 74 W/m 0,0 km/h (0 Bft)
16.09.2013 16:36 14,9 C 13,3 C 61 % 1000,3 hPa 0,0 l/m 0 min 0 min 0,0 UV-I 54 W/m 0,0 km/h (0 Bft)
16.09.2013 16:38 14,7 C 12,8 C 62 % 1000,4 hPa 0,0 l/m 0 min 0 min 0,0 UV-I 56 W/m 0,0 km/h (0 Bft)
16.09.2013 16:40 14,5 C 12,8 C 63 % 1000,4 hPa 0,0 l/m 0 min 0 min 0,0 UV-I 81 W/m 7,7 km/h (2 Bft)
16.09.2013 16:42 14,4 C 12,8 C 63 % 1000,4 hPa 0,0 l/m 0 min 0 min 0,7 UV-I 81 W/m 0,0 km/h (0 Bft)
16.09.2013 16:44 14,6 C 13,3 C 62 % 1000,3 hPa 0,0 l/m 2 min 0 min 0,8 UV-I 464 W/m 10,3 km/h (2 Bft)
16.09.2013 16:46 15,0 C 13,9 C 62 % 1000,4 hPa 0,0 l/m 2 min 0 min 0,7 UV-I 445 W/m 5,1 km/h (1 Bft)
16.09.2013 16:48 15,4 C 14,4 C 61 % 1000,2 hPa 0,0 l/m 2 min 0 min 0,7 UV-I 441 W/m 7,7 km/h (2 Bft)
16.09.2013 16:50 15,7 C 14,4 C 61 % 1000,2 hPa 0,0 l/m 2 min 0 min 0,7 UV-I 445 W/m 10,3 km/h (2 Bft)
16.09.2013 16:52 16,1 C 14,4 C 59 % 1000,3 hPa 0,0 l/m 2 min 0 min 0,7 UV-I 434 W/m 0,0 km/h (0 Bft)
16.09.2013 16:54 16,3 C 14,4 C 59 % 1000,3 hPa 0,0 l/m 2 min 0 min 0,7 UV-I 424 W/m 23,2 km/h (4 Bft)
16.09.2013 16:56 16,4 C 14,4 C 56 % 1000,2 hPa 0,0 l/m 2 min 0 min 0,7 UV-I 415 W/m 12,9 km/h (3 Bft)
16.09.2013 16:58 16,3 C 14,4 C 55 % 1000,3 hPa 0,0 l/m 2 min 0 min 0,6 UV-I 403 W/m 10,3 km/h (2 Bft)
16.09.2013 17:00 16,3 C 14,4 C 55 % 1000,2 hPa 0,0 l/m 2 min 0 min 0,6 UV-I 394 W/m 15,4 km/h (3 Bft)
16.09.2013 17:02 16,3 C 14,4 C 55 % 1000,2 hPa 0,0 l/m 2 min 0 min 0,6 UV-I 390 W/m 20,6 km/h (4 Bft)
16.09.2013 17:06 16,3 C 14,4 C 56 % 1000,3 hPa 0,0 l/m 2 min 0 min 0,5 UV-I 383 W/m 23,2 km/h (4 Bft)
16.09.2013 17:08 16,3 C 14,4 C 55 % 1000,3 hPa 0,0 l/m 2 min 0 min 0,5 UV-I 376 W/m 10,3 km/h (2 Bft)
16.09.2013 17:10 16,3 C 14,4 C 55 % 1000,2 hPa 0,0 l/m 2 min 0 min 0,5 UV-I 373 W/m 7,7 km/h (2 Bft)
16.09.2013 17:12 16,3 C 14,4 C 56 % 1000,2 hPa 0,0 l/m 2 min 0 min 0,5 UV-I 367 W/m 10,3 km/h (2 Bft)
16.09.2013 17:14 16,3 C 14,4 C 55 % 1000,2 hPa 0,0 l/m 2 min 0 min 0,5 UV-I 371 W/m 0,0 km/h (0 Bft)
16.09.2013 17:16 16,3 C 14,4 C 54 % 1000,1 hPa 0,0 l/m 2 min 0 min 0,0 UV-I 373 W/m 12,9 km/h (3 Bft)
16.09.2013 17:18 16,3 C 14,4 C 54 % 1000,2 hPa 0,0 l/m 0 min 0 min 0,0 UV-I 65 W/m 10,3 km/h (2 Bft)
16.09.2013 17:20 16,0 C 13,9 C 55 % 1000,3 hPa 0,0 l/m 0 min 0 min 0,0 UV-I 63 W/m 18,0 km/h (3 Bft)
16.09.2013 17:22 15,7 C 13,9 C 54 % 1000,2 hPa 0,0 l/m 0 min 0 min 0,0 UV-I 62 W/m 15,4 km/h (3 Bft)
16.09.2013 17:24 15,3 C 13,3 C 55 % 1000,3 hPa 0,0 l/m 0 min 0 min 0,0 UV-I 72 W/m 7,7 km/h (2 Bft)
16.09.2013 17:26 15,1 C 13,3 C 56 % 1000,3 hPa 0,0 l/m 0 min 0 min 0,0 UV-I 81 W/m 10,3 km/h (2 Bft)
16.09.2013 17:28 14,9 C 13,3 C 57 % 1000,3 hPa 0,0 l/m 0 min 0 min 0,0 UV-I 86 W/m 5,1 km/h (1 Bft)
16.09.2013 17:30 14,8 C 13,3 C 57 % 1000,2 hPa 0,0 l/m 0 min 0 min 0,0 UV-I 86 W/m 5,1 km/h (1 Bft)
16.09.2013 17:32 14,7 C 12,8 C 57 % 1000,2 hPa 0,0 l/m 0 min 0 min 0,0 UV-I 86 W/m 2,6 km/h (1 Bft)
16.09.2013 17:34 14,6 C 12,8 C 60 % 1000,4 hPa 0,0 l/m 2 min 0 min 0,0 UV-I 334 W/m 5,1 km/h (1 Bft)
16.09.2013 17:36 14,8 C 13,3 C 59 % 1000,3 hPa 0,0 l/m 2 min 0 min 0,0 UV-I 329 W/m 5,1 km/h (1 Bft)
16.09.2013 17:38 15,1 C 13,9 C 58 % 1000,3 hPa 0,0 l/m 2 min 0 min 0,0 UV-I 276 W/m 0,0 km/h (0 Bft)
16.09.2013 17:40 15,2 C 13,9 C 56 % 1000,3 hPa 0,0 l/m 2 min 0 min 0,0 UV-I 220 W/m 0,0 km/h (0 Bft)
16.09.2013 17:42 15,3 C 13,9 C 56 % 1000,3 hPa 0,0 l/m 2 min 0 min 0,0 UV-I 301 W/m 10,3 km/h (2 Bft)
16.09.2013 17:44 15,3 C 13,9 C 57 % 1000,3 hPa 0,0 l/m 0 min 0 min 0,0 UV-I 100 W/m 10,3 km/h (2 Bft)
16.09.2013 17:46 15,2 C 13,3 C 56 % 1000,4 hPa 0,0 l/m 0 min 0 min 0,0 UV-I 86 W/m 15,4 km/h (3 Bft)
16.09.2013 17:48 15,0 C 13,3 C 54 % 1000,4 hPa 0,0 l/m 0 min 0 min 0,0 UV-I 79 W/m 23,2 km/h (4 Bft)
16.09.2013 17:50 14,8 C 12,8 C 54 % 1000,4 hPa 0,0 l/m 0 min 0 min 0,0 UV-I 72 W/m 12,9 km/h (3 Bft)
16.09.2013 17:52 14,7 C 12,8 C 56 % 1000,3 hPa 0,0 l/m 0 min 0 min 0,0 UV-I 72 W/m 12,9 km/h (3 Bft)
16.09.2013 17:54 14,6 C 12,8 C 56 % 1000,3 hPa 0,0 l/m 0 min 0 min 0,0 UV-I 70 W/m 7,7 km/h (2 Bft)
16.09.2013 17:56 14,4 C 12,8 C 58 % 1000,4 hPa 0,0 l/m 0 min 0 min 0,0 UV-I 63 W/m 0,0 km/h (0 Bft)
16.09.2013 17:58 14,3 C 12,8 C 59 % 1000,4 hPa 0,0 l/m 0 min 0 min 0,0 UV-I 60 W/m 0,0 km/h (0 Bft)
16.09.2013 18:00 14,2 C 12,2 C 59 % 1000,3 hPa 0,0 l/m 2 min 0 min 0,0 UV-I 186 W/m 10,3 km/h (2 Bft)
16.09.2013 18:02 14,2 C 12,8 C 59 % 1000,4 hPa 0,0 l/m 0 min 0 min 0,0 UV-I 84 W/m 10,3 km/h (2 Bft)
16.09.2013 18:06 14,5 C 12,8 C 58 % 1000,3 hPa 0,0 l/m 2 min 0 min 0,0 UV-I 220 W/m 2,6 km/h (1 Bft)
16.09.2013 18:08 14,6 C 12,8 C 58 % 1000,3 hPa 0,0 l/m 0 min 0 min 0,0 UV-I 56 W/m 5,1 km/h (1 Bft)
16.09.2013 18:10 14,6 C 12,8 C 58 % 1000,4 hPa 0,0 l/m 0 min 0 min 0,0 UV-I 65 W/m 10,3 km/h (2 Bft)
16.09.2013 18:12 14,6 C 12,8 C 58 % 1000,3 hPa 0,0 l/m 0 min 0 min 0,0 UV-I 49 W/m 0,0 km/h (0 Bft)
16.09.2013 18:14 14,6 C 12,8 C 59 % 1000,4 hPa 0,0 l/m 0 min 0 min 0,0 UV-I 81 W/m 0,0 km/h (0 Bft)
16.09.2013 18:16 14,6 C 12,8 C 59 % 1000,4 hPa 0,0 l/m 0 min 0 min 0,0 UV-I 118 W/m 0,0 km/h (0 Bft)
16.09.2013 18:18 14,6 C 12,8 C 59 % 1000,3 hPa 0,0 l/m 0 min 0 min 0,0 UV-I 63 W/m 0,0 km/h (0 Bft)
16.09.2013 18:20 14,7 C 12,8 C 60 % 1000,3 hPa 0,0 l/m 0 min 0 min 0,0 UV-I 56 W/m 0,0 km/h (0 Bft)
16.09.2013 18:22 14,7 C 12,2 C 59 % 1000,4 hPa 0,0 l/m 0 min 0 min 0,0 UV-I 107 W/m 0,0 km/h (0 Bft)
16.09.2013 18:24 14,7 C 12,8 C 59 % 1000,4 hPa 0,0 l/m 0 min 0 min 0,0 UV-I 77 W/m 0,0 km/h (0 Bft)
16.09.2013 18:26 14,7 C 12,8 C 59 % 1000,3 hPa 0,0 l/m 2 min 0 min 0,0 UV-I 135 W/m 0,0 km/h (0 Bft)
16.09.2013 18:28 14,7 C 12,8 C 59 % 1000,4 hPa 0,0 l/m 0 min 0 min 0,0 UV-I 44 W/m 15,4 km/h (3 Bft)
16.09.2013 18:30 14,6 C 12,2 C 59 % 1000,3 hPa 0,0 l/m 0 min 0 min 0,0 UV-I 46 W/m 0,0 km/h (0 Bft)
16.09.2013 18:32 14,5 C 12,2 C 59 % 1000,3 hPa 0,0 l/m 0 min 0 min 0,0 UV-I 51 W/m 0,0 km/h (0 Bft)
16.09.2013 18:34 14,5 C 12,2 C 58 % 1000,4 hPa 0,0 l/m 0 min 0 min 0,0 UV-I 42 W/m 7,7 km/h (2 Bft)
16.09.2013 18:36 14,4 C 12,2 C 59 % 1000,4 hPa 0,0 l/m 0 min 0 min 0,0 UV-I 42 W/m 0,0 km/h (0 Bft)
16.09.2013 18:38 14,3 C 12,2 C 60 % 1000,4 hPa 0,0 l/m 0 min 0 min 0,0 UV-I 39 W/m 0,0 km/h (0 Bft)
16.09.2013 18:40 14,2 C 12,2 C 60 % 1000,3 hPa 0,0 l/m 0 min 0 min 0,0 UV-I 37 W/m 2,6 km/h (1 Bft)
16.09.2013 18:42 14,2 C 12,2 C 60 % 1000,4 hPa 0,0 l/m 0 min 0 min 0,0 UV-I 35 W/m 2,6 km/h (1 Bft)
16.09.2013 18:44 14,2 C 12,2 C 59 % 1000,4 hPa 0,0 l/m 0 min 0 min 0,0 UV-I 33 W/m 12,9 km/h (3 Bft)
16.09.2013 18:46 14,1 C 12,2 C 58 % 1000,4 hPa 0,0 l/m 0 min 0 min 0,0 UV-I 26 W/m 10,3 km/h (2 Bft)
16.09.2013 18:48 13,9 C 11,7 C 59 % 1000,4 hPa 0,0 l/m 0 min 0 min 0,0 UV-I 25 W/m 7,7 km/h (2 Bft)
16.09.2013 18:50 13,8 C 11,7 C 59 % 1000,3 hPa 0,0 l/m 0 min 0 min 0,0 UV-I 26 W/m 0,0 km/h (0 Bft)
16.09.2013 18:52 13,7 C 11,7 C 59 % 1000,4 hPa 0,0 l/m 0 min 0 min 0,0 UV-I 58 W/m 0,0 km/h (0 Bft)
16.09.2013 18:54 13,7 C 11,7 C 59 % 1000,3 hPa 0,0 l/m 0 min 0 min 0,0 UV-I 47 W/m 10,3 km/h (2 Bft)
16.09.2013 18:56 13,6 C 11,7 C 60 % 1000,4 hPa 0,0 l/m 0 min 0 min 0,0 UV-I 63 W/m 0,0 km/h (0 Bft)
16.09.2013 18:58 13,7 C 11,7 C 60 % 1000,4 hPa 0,0 l/m 2 min 0 min 0,0 UV-I 69 W/m 0,0 km/h (0 Bft)
16.09.2013 19:00 13,7 C 12,2 C 61 % 1000,5 hPa 0,0 l/m 2 min 0 min 0,0 UV-I 81 W/m 0,0 km/h (0 Bft)
16.09.2013 19:02 13,8 C 12,2 C 59 % 1000,5 hPa 0,0 l/m 2 min 0 min 0,0 UV-I 79 W/m 12,9 km/h (3 Bft)
16.09.2013 19:06 13,9 C 12,2 C 57 % 1000,4 hPa 0,0 l/m 0 min 0 min 0,0 UV-I 39 W/m 15,4 km/h (3 Bft)
16.09.2013 19:08 13,8 C 11,7 C 57 % 1000,5 hPa 0,0 l/m 0 min 0 min 0,0 UV-I 28 W/m 2,6 km/h (1 Bft)
16.09.2013 19:10 13,7 C 11,7 C 57 % 1000,5 hPa 0,0 l/m 0 min 0 min 0,0 UV-I 25 W/m 10,3 km/h (2 Bft)
16.09.2013 19:12 13,6 C 11,7 C 58 % 1000,5 hPa 0,0 l/m 0 min 0 min 0,0 UV-I 23 W/m 7,7 km/h (2 Bft)
16.09.2013 19:14 13,4 C 11,7 C 60 % 1000,4 hPa 0,0 l/m 0 min 0 min 0,0 UV-I 21 W/m 0,0 km/h (0 Bft)
16.09.2013 19:16 13,3 C 11,1 C 60 % 1000,4 hPa 0,0 l/m 0 min 0 min 0,0 UV-I 19 W/m 0,0 km/h (0 Bft)
16.09.2013 19:18 13,2 C 11,1 C 61 % 1000,5 hPa 0,0 l/m 0 min 0 min 0,0 UV-I 18 W/m 2,6 km/h (1 Bft)
16.09.2013 19:20 13,1 C 11,1 C 61 % 1000,5 hPa 0,0 l/m 0 min 0 min 0,0 UV-I 16 W/m 0,0 km/h (0 Bft)
16.09.2013 19:22 12,9 C 11,1 C 62 % 1000,6 hPa 0,0 l/m 0 min 0 min 0,0 UV-I 14 W/m 0,0 km/h (0 Bft)
16.09.2013 19:24 12,8 C 10,6 C 62 % 1000,5 hPa 0,0 l/m 0 min 0 min 0,0 UV-I 14 W/m 0,0 km/h (0 Bft)
16.09.2013 19:26 12,7 C 10,6 C 63 % 1000,5 hPa 0,0 l/m 0 min 0 min 0,0 UV-I 12 W/m 0,0 km/h (0 Bft)
16.09.2013 19:28 12,6 C 10,6 C 64 % 1000,5 hPa 0,0 l/m 0 min 0 min 0,0 UV-I 11 W/m 0,0 km/h (0 Bft)
16.09.2013 19:30 12,4 C 10,0 C 66 % 1000,4 hPa 0,0 l/m 0 min 0 min 0,0 UV-I 9 W/m 0,0 km/h (0 Bft)
16.09.2013 19:32 12,3 C 10,0 C 66 % 1000,5 hPa 0,0 l/m 0 min 0 min 0,0 UV-I 9 W/m 0,0 km/h (0 Bft)
16.09.2013 19:34 12,2 C 10,0 C 66 % 1000,6 hPa 0,0 l/m 0 min 0 min 0,0 UV-I 7 W/m 0,0 km/h (0 Bft)
16.09.2013 19:36 12,1 C 10,0 C 67 % 1000,6 hPa 0,0 l/m 0 min 0 min 0,0 UV-I 7 W/m 0,0 km/h (0 Bft)
16.09.2013 19:38 12,0 C 9,4 C 67 % 1000,6 hPa 0,0 l/m 0 min 0 min 0,0 UV-I 7 W/m 0,0 km/h (0 Bft)
16.09.2013 19:40 11,9 C 9,4 C 67 % 1000,7 hPa 0,0 l/m 0 min 0 min 0,0 UV-I 5 W/m 0,0 km/h (0 Bft)
16.09.2013 19:42 11,8 C 9,4 C 68 % 1000,6 hPa 0,0 l/m 0 min 0 min 0,0 UV-I 5 W/m 0,0 km/h (0 Bft)
16.09.2013 19:44 11,7 C 9,4 C 69 % 1000,7 hPa 0,0 l/m 0 min 0 min 0,0 UV-I 5 W/m 0,0 km/h (0 Bft)
16.09.2013 19:46 11,6 C 8,9 C 69 % 1000,7 hPa 0,0 l/m 0 min 0 min 0,0 UV-I 5 W/m 0,0 km/h (0 Bft)
16.09.2013 19:48 11,4 C 8,9 C 70 % 1000,7 hPa 0,0 l/m 0 min 0 min 0,0 UV-I 0 W/m 0,0 km/h (0 Bft)
16.09.2013 19:50 11,3 C 8,9 C 71 % 1000,7 hPa 0,0 l/m 0 min 0 min 0,0 UV-I 0 W/m 0,0 km/h (0 Bft)
16.09.2013 19:52 11,2 C 8,9 C 72 % 1000,7 hPa 0,0 l/m 0 min 0 min 0,0 UV-I 0 W/m 0,0 km/h (0 Bft)
16.09.2013 19:54 11,1 C 8,9 C 73 % 1000,7 hPa 0,0 l/m 0 min 0 min 0,0 UV-I 0 W/m 0,0 km/h (0 Bft)
16.09.2013 19:56 10,9 C 8,9 C 73 % 1000,8 hPa 0,0 l/m 0 min 0 min 0,0 UV-I 0 W/m 0,0 km/h (0 Bft)
16.09.2013 19:58 10,8 C 8,3 C 74 % 1000,7 hPa 0,0 l/m 0 min 0 min 0,0 UV-I 0 W/m 0,0 km/h (0 Bft)
16.09.2013 20:00 10,7 C 8,3 C 75 % 1000,8 hPa 0,0 l/m 0 min 0 min 0,0 UV-I 0 W/m 0,0 km/h (0 Bft)
16.09.2013 20:02 10,6 C 8,3 C 75 % 1000,9 hPa 0,0 l/m 0 min 0 min 0,0 UV-I 0 W/m 0,0 km/h (0 Bft)
16.09.2013 20:06 10,5 C 8,3 C 76 % 1000,7 hPa 0,0 l/m 0 min 0 min 0,0 UV-I 0 W/m 0,0 km/h (0 Bft)
16.09.2013 20:08 10,4 C 8,3 C 76 % 1000,8 hPa 0,0 l/m 0 min 0 min 0,0 UV-I 0 W/m 0,0 km/h (0 Bft)
16.09.2013 20:10 10,4 C 8,3 C 76 % 1000,8 hPa 0,0 l/m 0 min 0 min 0,0 UV-I 0 W/m 0,0 km/h (0 Bft)
16.09.2013 20:12 10,4 C 8,3 C 77 % 1000,8 hPa 0,0 l/m 0 min 0 min 0,0 UV-I 0 W/m 0,0 km/h (0 Bft)
16.09.2013 20:14 10,3 C 8,3 C 78 % 1000,9 hPa 0,0 l/m 0 min 0 min 0,0 UV-I 0 W/m 0,0 km/h (0 Bft)
16.09.2013 20:16 10,2 C 7,8 C 79 % 1000,8 hPa 0,0 l/m 0 min 0 min 0,0 UV-I 0 W/m 0,0 km/h (0 Bft)
16.09.2013 20:18 10,1 C 7,8 C 79 % 1000,9 hPa 0,0 l/m 0 min 0 min 0,0 UV-I 0 W/m 0,0 km/h (0 Bft)
16.09.2013 20:20 10,0 C 7,8 C 80 % 1000,9 hPa 0,0 l/m 0 min 0 min 0,0 UV-I 0 W/m 0,0 km/h (0 Bft)
16.09.2013 20:22 9,9 C 7,8 C 80 % 1001,0 hPa 0,0 l/m 0 min 0 min 0,0 UV-I 0 W/m 0,0 km/h (0 Bft)
16.09.2013 20:24 9,9 C 7,8 C 79 % 1001,0 hPa 0,0 l/m 0 min 0 min 0,0 UV-I 0 W/m 0,0 km/h (0 Bft)
16.09.2013 20:26 9,8 C 7,8 C 80 % 1000,9 hPa 0,0 l/m 0 min 0 min 0,0 UV-I 0 W/m 0,0 km/h (0 Bft)
16.09.2013 20:28 9,7 C 7,8 C 80 % 1001,0 hPa 0,0 l/m 0 min 0 min 0,0 UV-I 0 W/m 0,0 km/h (0 Bft)
16.09.2013 20:30 9,6 C 7,8 C 81 % 1000,9 hPa 0,0 l/m 0 min 0 min 0,0 UV-I 0 W/m 0,0 km/h (0 Bft)
16.09.2013 20:32 9,6 C 7,8 C 82 % 1001,0 hPa 0,0 l/m 0 min 0 min 0,0 UV-I 0 W/m 0,0 km/h (0 Bft)
16.09.2013 20:34 9,5 C 7,8 C 82 % 1001,1 hPa 0,0 l/m 0 min 0 min 0,0 UV-I 0 W/m 0,0 km/h (0 Bft)
16.09.2013 20:36 9,5 C 7,2 C 83 % 1001,1 hPa 0,0 l/m 0 min 0 min 0,0 UV-I 0 W/m 0,0 km/h (0 Bft)
16.09.2013 20:38 9,4 C 7,2 C 83 % 1001,0 hPa 0,0 l/m 0 min 0 min 0,0 UV-I 0 W/m 0,0 km/h (0 Bft)
16.09.2013 20:40 9,4 C 7,2 C 84 % 1001,2 hPa 0,0 l/m 0 min 0 min 0,0 UV-I 0 W/m 0,0 km/h (0 Bft)
16.09.2013 20:42 9,3 C 7,2 C 84 % 1001,2 hPa 0,0 l/m 0 min 0 min 0,0 UV-I 0 W/m 0,0 km/h (0 Bft)
16.09.2013 20:44 9,3 C 7,2 C 85 % 1001,2 hPa 0,0 l/m 0 min 0 min 0,0 UV-I 0 W/m 0,0 km/h (0 Bft)
16.09.2013 20:46 9,2 C 7,2 C 85 % 1001,2 hPa 0,0 l/m 0 min 0 min 0,0 UV-I 0 W/m 0,0 km/h (0 Bft)
16.09.2013 20:48 9,2 C 7,2 C 85 % 1001,3 hPa 0,0 l/m 0 min 0 min 0,0 UV-I 0 W/m 0,0 km/h (0 Bft)
16.09.2013 20:50 9,2 C 7,2 C 85 % 1001,3 hPa 0,0 l/m 0 min 0 min 0,0 UV-I 0 W/m 0,0 km/h (0 Bft)
16.09.2013 20:52 9,1 C 7,2 C 85 % 1001,3 hPa 0,0 l/m 0 min 0 min 0,0 UV-I 0 W/m 0,0 km/h (0 Bft)
16.09.2013 20:54 9,1 C 7,2 C 85 % 1001,3 hPa 0,0 l/m 0 min 0 min 0,0 UV-I 0 W/m 0,0 km/h (0 Bft)
16.09.2013 20:56 9,2 C 7,2 C 85 % 1001,4 hPa 0,0 l/m 0 min 0 min 0,0 UV-I 0 W/m 0,0 km/h (0 Bft)
16.09.2013 20:58 9,2 C 7,8 C 85 % 1001,5 hPa 0,0 l/m 0 min 0 min 0,0 UV-I 0 W/m 0,0 km/h (0 Bft)
16.09.2013 21:00 9,2 C 7,8 C 85 % 1001,5 hPa 0,0 l/m 0 min 0 min 0,0 UV-I 0 W/m 0,0 km/h (0 Bft)
16.09.2013 21:02 9,2 C 7,8 C 85 % 1001,6 hPa 0,0 l/m 0 min 0 min 0,0 UV-I 0 W/m 0,0 km/h (0 Bft)
16.09.2013 21:06 9,3 C 7,8 C 86 % 1001,6 hPa 0,2 l/m 0 min 2 min 0,0 UV-I 0 W/m 0,0 km/h (0 Bft)
16.09.2013 21:08 9,4 C 7,8 C 87 % 1001,5 hPa 0,2 l/m 0 min 2 min 0,0 UV-I 0 W/m 0,0 km/h (0 Bft)
16.09.2013 21:10 9,3 C 7,8 C 88 % 1001,6 hPa 0,0 l/m 0 min 2 min 0,0 UV-I 0 W/m 0,0 km/h (0 Bft)
16.09.2013 21:12 9,2 C 7,2 C 88 % 1001,6 hPa 0,0 l/m 0 min 0 min 0,0 UV-I 0 W/m 0,0 km/h (0 Bft)
16.09.2013 21:14 9,2 C 7,2 C 89 % 1001,6 hPa 0,2 l/m 0 min 0 min 0,0 UV-I 0 W/m 0,0 km/h (0 Bft)
16.09.2013 21:16 9,2 C 7,2 C 89 % 1001,6 hPa 0,0 l/m 0 min 0 min 0,0 UV-I 0 W/m 0,0 km/h (0 Bft)
16.09.2013 21:18 9,1 C 7,2 C 90 % 1001,6 hPa 0,0 l/m 0 min 0 min 0,0 UV-I 0 W/m 0,0 km/h (0 Bft)
16.09.2013 21:20 9,0 C 7,2 C 90 % 1001,5 hPa 0,0 l/m 0 min 0 min 0,0 UV-I 0 W/m 0,0 km/h (0 Bft)
16.09.2013 21:22 9,0 C 7,2 C 90 % 1001,5 hPa 0,0 l/m 0 min 0 min 0,0 UV-I 0 W/m 0,0 km/h (0 Bft)
16.09.2013 21:24 8,9 C 7,2 C 90 % 1001,6 hPa 0,0 l/m 0 min 0 min 0,0 UV-I 0 W/m 0,0 km/h (0 Bft)
16.09.2013 21:26 8,9 C 6,7 C 91 % 1001,5 hPa 0,0 l/m 0 min 0 min 0,0 UV-I 0 W/m 0,0 km/h (0 Bft)
16.09.2013 21:28 8,8 C 6,7 C 91 % 1001,6 hPa 0,0 l/m 0 min 0 min 0,0 UV-I 0 W/m 0,0 km/h (0 Bft)
16.09.2013 21:30 8,7 C 6,7 C 91 % 1001,6 hPa 0,0 l/m 0 min 0 min 0,0 UV-I 0 W/m 0,0 km/h (0 Bft)
16.09.2013 21:32 8,7 C 6,7 C 92 % 1001,6 hPa 0,0 l/m 0 min 0 min 0,0 UV-I 0 W/m 0,0 km/h (0 Bft)
16.09.2013 21:34 8,6 C 6,7 C 92 % 1001,6 hPa 0,0 l/m 0 min 0 min 0,0 UV-I 0 W/m 0,0 km/h (0 Bft)
16.09.2013 21:36 8,6 C 6,7 C 92 % 1001,6 hPa 0,0 l/m 0 min 0 min 0,0 UV-I 0 W/m 0,0 km/h (0 Bft)
16.09.2013 21:38 8,5 C 6,7 C 92 % 1001,6 hPa 0,0 l/m 0 min 0 min 0,0 UV-I 0 W/m 0,0 km/h (0 Bft)
16.09.2013 21:40 8,5 C 7,2 C 92 % 1001,6 hPa 0,0 l/m 0 min 0 min 0,0 UV-I 0 W/m 0,0 km/h (0 Bft)
16.09.2013 21:42 8,5 C 7,2 C 93 % 1001,6 hPa 0,0 l/m 0 min 0 min 0,0 UV-I 0 W/m 0,0 km/h (0 Bft)
16.09.2013 21:44 8,6 C 7,2 C 93 % 1001,6 hPa 0,0 l/m 0 min 0 min 0,0 UV-I 0 W/m 0,0 km/h (0 Bft)
16.09.2013 21:46 8,6 C 7,2 C 93 % 1001,7 hPa 0,0 l/m 0 min 0 min 0,0 UV-I 0 W/m 0,0 km/h (0 Bft)
16.09.2013 21:48 8,6 C 7,2 C 93 % 1001,6 hPa 0,0 l/m 0 min 0 min 0,0 UV-I 0 W/m 0,0 km/h (0 Bft)
16.09.2013 21:50 8,6 C 7,2 C 93 % 1001,6 hPa 0,0 l/m 0 min 0 min 0,0 UV-I 0 W/m 0,0 km/h (0 Bft)
16.09.2013 21:52 8,7 C 7,2 C 93 % 1001,7 hPa 0,0 l/m 0 min 0 min 0,0 UV-I 0 W/m 0,0 km/h (0 Bft)
16.09.2013 21:54 8,7 C 7,2 C 93 % 1001,8 hPa 0,0 l/m 0 min 0 min 0,0 UV-I 0 W/m 0,0 km/h (0 Bft)
16.09.2013 21:56 8,8 C 7,2 C 93 % 1001,7 hPa 0,0 l/m 0 min 0 min 0,0 UV-I 0 W/m 0,0 km/h (0 Bft)
16.09.2013 21:58 8,9 C 7,2 C 93 % 1001,7 hPa 0,0 l/m 0 min 0 min 0,0 UV-I 0 W/m 0,0 km/h (0 Bft)
16.09.2013 22:00 8,9 C 7,2 C 93 % 1001,7 hPa 0,0 l/m 0 min 0 min 0,0 UV-I 0 W/m 0,0 km/h (0 Bft)
16.09.2013 22:02 8,9 C 7,2 C 92 % 1001,8 hPa 0,0 l/m 0 min 0 min 0,0 UV-I 0 W/m 0,0 km/h (0 Bft)
16.09.2013 22:06 9,1 C 7,2 C 92 % 1001,8 hPa 0,0 l/m 0 min 0 min 0,0 UV-I 0 W/m 0,0 km/h (0 Bft)
16.09.2013 22:08 9,1 C 7,2 C 91 % 1001,8 hPa 0,0 l/m 0 min 0 min 0,0 UV-I 0 W/m 0,0 km/h (0 Bft)
16.09.2013 22:10 9,2 C 7,2 C 90 % 1001,8 hPa 0,0 l/m 0 min 0 min 0,0 UV-I 0 W/m 0,0 km/h (0 Bft)
16.09.2013 22:12 9,2 C 7,2 C 90 % 1001,7 hPa 0,0 l/m 0 min 0 min 0,0 UV-I 0 W/m 5,1 km/h (1 Bft)
16.09.2013 22:14 9,3 C 7,2 C 89 % 1001,8 hPa 0,0 l/m 0 min 0 min 0,0 UV-I 0 W/m 5,1 km/h (1 Bft)
16.09.2013 22:16 9,3 C 7,2 C 88 % 1001,7 hPa 0,0 l/m 0 min 0 min 0,0 UV-I 0 W/m 0,0 km/h (0 Bft)
16.09.2013 22:18 9,3 C 7,2 C 88 % 1001,8 hPa 0,0 l/m 0 min 0 min 0,0 UV-I 0 W/m 0,0 km/h (0 Bft)
16.09.2013 22:20 9,3 C 7,2 C 88 % 1001,9 hPa 0,0 l/m 0 min 0 min 0,0 UV-I 0 W/m 0,0 km/h (0 Bft)
16.09.2013 22:22 9,2 C 7,2 C 89 % 1001,9 hPa 0,0 l/m 0 min 0 min 0,0 UV-I 0 W/m 0,0 km/h (0 Bft)
16.09.2013 22:24 9,2 C 7,2 C 89 % 1001,9 hPa 0,0 l/m 0 min 0 min 0,0 UV-I 0 W/m 0,0 km/h (0 Bft)
16.09.2013 22:26 9,2 C 7,2 C 88 % 1001,9 hPa 0,0 l/m 0 min 0 min 0,0 UV-I 0 W/m 0,0 km/h (0 Bft)
16.09.2013 22:28 9,2 C 7,2 C 88 % 1001,8 hPa 0,0 l/m 0 min 0 min 0,0 UV-I 0 W/m 2,6 km/h (1 Bft)
16.09.2013 22:30 9,3 C 7,2 C 88 % 1001,8 hPa 0,0 l/m 0 min 0 min 0,0 UV-I 0 W/m 0,0 km/h (0 Bft)
16.09.2013 22:32 9,3 C 7,2 C 87 % 1001,8 hPa 0,0 l/m 0 min 0 min 0,0 UV-I 0 W/m 0,0 km/h (0 Bft)
16.09.2013 22:34 9,3 C 7,2 C 88 % 1001,8 hPa 0,0 l/m 0 min 0 min 0,0 UV-I 0 W/m 0,0 km/h (0 Bft)
16.09.2013 22:36 9,3 C 7,2 C 88 % 1001,8 hPa 0,0 l/m 0 min 0 min 0,0 UV-I 0 W/m 0,0 km/h (0 Bft)
16.09.2013 22:38 9,2 C 7,2 C 89 % 1001,9 hPa 0,0 l/m 0 min 0 min 0,0 UV-I 0 W/m 0,0 km/h (0 Bft)
16.09.2013 22:40 9,2 C 7,2 C 89 % 1001,8 hPa 0,0 l/m 0 min 2 min 0,0 UV-I 0 W/m 0,0 km/h (0 Bft)
16.09.2013 22:42 9,3 C 7,2 C 89 % 1001,9 hPa 0,0 l/m 0 min 0 min 0,0 UV-I 0 W/m 0,0 km/h (0 Bft)
16.09.2013 22:44 9,2 C 7,8 C 89 % 1001,8 hPa 0,0 l/m 0 min 0 min 0,0 UV-I 0 W/m 0,0 km/h (0 Bft)
16.09.2013 22:46 9,2 C 7,2 C 89 % 1001,8 hPa 0,0 l/m 0 min 0 min 0,0 UV-I 0 W/m 0,0 km/h (0 Bft)
16.09.2013 22:48 9,2 C 7,8 C 89 % 1001,8 hPa 0,0 l/m 0 min 0 min 0,0 UV-I 0 W/m 0,0 km/h (0 Bft)
16.09.2013 22:50 9,2 C 7,8 C 89 % 1001,8 hPa 0,0 l/m 0 min 0 min 0,0 UV-I 0 W/m 0,0 km/h (0 Bft)
16.09.2013 22:52 9,2 C 7,8 C 90 % 1001,8 hPa 0,0 l/m 0 min 0 min 0,0 UV-I 0 W/m 0,0 km/h (0 Bft)
16.09.2013 22:54 9,2 C 7,8 C 90 % 1001,8 hPa 0,0 l/m 0 min 0 min 0,0 UV-I 0 W/m 0,0 km/h (0 Bft)
16.09.2013 22:56 9,1 C 7,8 C 90 % 1001,8 hPa 0,0 l/m 0 min 0 min 0,0 UV-I 0 W/m 0,0 km/h (0 Bft)
16.09.2013 22:58 9,2 C 7,8 C 90 % 1001,8 hPa 0,0 l/m 0 min 0 min 0,0 UV-I 0 W/m 0,0 km/h (0 Bft)
16.09.2013 23:00 9,2 C 7,2 C 89 % 1001,8 hPa 0,0 l/m 0 min 0 min 0,0 UV-I 0 W/m 0,0 km/h (0 Bft)
16.09.2013 23:02 9,2 C 7,2 C 89 % 1001,8 hPa 0,0 l/m 0 min 0 min 0,0 UV-I 0 W/m 0,0 km/h (0 Bft)
16.09.2013 23:06 9,2 C 7,8 C 90 % 1001,8 hPa 0,0 l/m 0 min 0 min 0,0 UV-I 0 W/m 0,0 km/h (0 Bft)
16.09.2013 23:08 9,2 C 7,2 C 90 % 1001,8 hPa 0,0 l/m 0 min 0 min 0,0 UV-I 0 W/m 0,0 km/h (0 Bft)
16.09.2013 23:10 9,2 C 7,8 C 90 % 1001,8 hPa 0,0 l/m 0 min 0 min 0,0 UV-I 0 W/m 0,0 km/h (0 Bft)
16.09.2013 23:12 9,2 C 7,8 C 90 % 1001,7 hPa 0,0 l/m 0 min 0 min 0,0 UV-I 0 W/m 0,0 km/h (0 Bft)
16.09.2013 23:14 9,2 C 7,2 C 90 % 1001,7 hPa 0,0 l/m 0 min 0 min 0,0 UV-I 0 W/m 0,0 km/h (0 Bft)
16.09.2013 23:16 9,2 C 7,2 C 90 % 1001,7 hPa 0,0 l/m 0 min 0 min 0,0 UV-I 0 W/m 0,0 km/h (0 Bft)
16.09.2013 23:18 9,2 C 7,2 C 89 % 1001,7 hPa 0,0 l/m 0 min 0 min 0,0 UV-I 0 W/m 0,0 km/h (0 Bft)
16.09.2013 23:20 9,3 C 7,2 C 89 % 1001,7 hPa 0,0 l/m 0 min 0 min 0,0 UV-I 0 W/m 2,6 km/h (1 Bft)
16.09.2013 23:22 9,3 C 7,2 C 89 % 1001,7 hPa 0,0 l/m 0 min 0 min 0,0 UV-I 0 W/m 0,0 km/h (0 Bft)
16.09.2013 23:24 9,3 C 7,2 C 88 % 1001,8 hPa 0,0 l/m 0 min 0 min 0,0 UV-I 0 W/m 0,0 km/h (0 Bft)
16.09.2013 23:26 9,3 C 7,2 C 88 % 1001,8 hPa 0,0 l/m 0 min 0 min 0,0 UV-I 0 W/m 0,0 km/h (0 Bft)
16.09.2013 23:28 9,2 C 7,2 C 88 % 1001,7 hPa 0,0 l/m 0 min 0 min 0,0 UV-I 0 W/m 0,0 km/h (0 Bft)
16.09.2013 23:30 9,2 C 7,2 C 88 % 1001,7 hPa 0,0 l/m 0 min 0 min 0,0 UV-I 0 W/m 0,0 km/h (0 Bft)
16.09.2013 23:32 9,2 C 7,2 C 88 % 1001,7 hPa 0,0 l/m 0 min 0 min 0,0 UV-I 0 W/m 0,0 km/h (0 Bft)
16.09.2013 23:34 9,2 C 7,2 C 88 % 1001,8 hPa 0,0 l/m 0 min 0 min 0,0 UV-I 0 W/m 0,0 km/h (0 Bft)
16.09.2013 23:36 9,1 C 6,7 C 88 % 1001,8 hPa 0,0 l/m 0 min 0 min 0,0 UV-I 0 W/m 0,0 km/h (0 Bft)
16.09.2013 23:38 9,1 C 6,7 C 88 % 1001,8 hPa 0,0 l/m 0 min 0 min 0,0 UV-I 0 W/m 0,0 km/h (0 Bft)
16.09.2013 23:40 9,0 C 6,7 C 88 % 1001,8 hPa 0,0 l/m 0 min 0 min 0,0 UV-I 0 W/m 0,0 km/h (0 Bft)
16.09.2013 23:42 8,9 C 6,7 C 88 % 1001,8 hPa 0,0 l/m 0 min 0 min 0,0 UV-I 0 W/m 2,6 km/h (1 Bft)
16.09.2013 23:44 8,9 C 6,7 C 88 % 1001,9 hPa 0,0 l/m 0 min 0 min 0,0 UV-I 0 W/m 2,6 km/h (1 Bft)
16.09.2013 23:46 8,9 C 6,7 C 88 % 1001,9 hPa 0,0 l/m 0 min 0 min 0,0 UV-I 0 W/m 2,6 km/h (1 Bft)
16.09.2013 23:48 8,9 C 6,7 C 88 % 1001,9 hPa 0,0 l/m 0 min 0 min 0,0 UV-I 0 W/m 0,0 km/h (0 Bft)
16.09.2013 23:50 8,9 C 6,7 C 88 % 1001,9 hPa 0,0 l/m 0 min 0 min 0,0 UV-I 0 W/m 5,1 km/h (1 Bft)
16.09.2013 23:52 8,9 C 6,7 C 87 % 1002,0 hPa 0,0 l/m 0 min 0 min 0,0 UV-I 0 W/m 0,0 km/h (0 Bft)
16.09.2013 23:54 8,9 C 6,7 C 87 % 1002,0 hPa 0,0 l/m 0 min 0 min 0,0 UV-I 0 W/m 2,6 km/h (1 Bft)
16.09.2013 23:56 8,8 C 6,7 C 87 % 1001,9 hPa 0,0 l/m 0 min 0 min 0,0 UV-I 0 W/m 0,0 km/h (0 Bft)
16.09.2013 23:58 8,8 C 6,7 C 87 % 1002,0 hPa 0,0 l/m 0 min 0 min 0,0 UV-I 0 W/m 2,6 km/h (1 Bft)
_ Min-Zeit 21:38 21:26 15:28 06:00 - - - - - 00:28
Minimum _ 8,5 C 6,7 C 54 % 1000,1 hPa - - - - - 0,0 km/h (0 Bft)
_ Max-Zeit 14:46 14:34 04:14 00:00 00:00 08:30 00:00 13:46 13:52 13:28
Maximum _ 16,9 C 16,1 C 98 % 1004,4 hPa 0,2 l/m 2 min 2 min 3,0 UV-I 833 W/m 36,0 km/h
O-SO (5 Bft)
Durchschnitt _ 12,6 C 11,2 C 83 % 1001,1 hPa #5,8 l/m #4:26 h #6:16 h 1,5 UV-I 266 W/m 8,2 km/h (2 Bft)
© 2013 W. Hausmann